Observation data for Junction on 12/08/2018      Previous  Date       Current Mesonet Observations  Soil Data  Daily Summary Page  Observations in Plain Language
KJU1 080600Z 01004KT 04/04 A302 RMK A01 T00430035  RH  095%=      5-min Rain = 0
KJU1 080601Z 35004KT 04/04 A302 RMK A01 T00430035  RH  095%=      5-min Rain = 0
KJU1 080602Z 01004KT 04/04 A302 RMK A01 T00430035  RH  095%=      5-min Rain = 0
KJU1 080603Z 01005KT 04/04 A302 RMK A01 T00430035  RH  095%=      5-min Rain = 0
KJU1 080604Z 36006KT 04/04 A302 RMK A01 T00430035  RH  095%=      5-min Rain = 0
KJU1 080605Z 00004KT 04/04 A302 RMK A01 T00430035  RH  095%=      5-min Rain = 0
KJU1 080606Z 01006KT 04/04 A3019 RMK A01 T00430035  RH  095%=      5-min Rain = 0
KJU1 080607Z 01006KT 04/04 A3019 RMK A01 T00430035  RH  095%=      5-min Rain = 0
KJU1 080608Z 01005KT 04/04 A3019 RMK A01 T00420035  RH  095%=      5-min Rain = 0
KJU1 080609Z 01005KT 04/04 A3019 RMK A01 T00420035  RH  095%=      5-min Rain = 0
KJU1 080610Z 01005KT 04/04 A3019 RMK A01 T00430035  RH  095%=      5-min Rain = 0
KJU1 080611Z 02005KT 04/04 A3018 RMK A01 T00430035  RH  095%=      5-min Rain = 0
KJU1 080612Z 02004KT 04/04 A3018 RMK A01 T00430036  RH  095%=      5-min Rain = 0
KJU1 080613Z 02004KT 04/04 A3018 RMK A01 T00430036  RH  095%=      5-min Rain = 0
KJU1 080614Z 01004KT 04/04 A3019 RMK A01 T00430036  RH  095%=      5-min Rain = 0
KJU1 080615Z 01003KT 04/04 A3019 RMK A01 T00430036  RH  095%=      5-min Rain = 0
KJU1 080616Z 01003KT 04/04 A3018 RMK A01 T00430036  RH  095%=      5-min Rain = 0
KJU1 080617Z 01004KT 04/04 A3018 RMK A01 T00430037  RH  095%=      5-min Rain = 0
KJU1 080618Z 01004KT 04/04 A3018 RMK A01 T00430036  RH  095%=      5-min Rain = 0
KJU1 080619Z 01004KT 04/04 A3018 RMK A01 T00430036  RH  095%=      5-min Rain = 0
KJU1 080620Z 36004KT 04/04 A3019 RMK A01 T00430036  RH  095%=      5-min Rain = 0
KJU1 080621Z 34005KT 04/04 A3019 RMK A01 T00430036  RH  095%=      5-min Rain = 0
KJU1 080622Z 34004KT 04/04 A3019 RMK A01 T00430036  RH  095%=      5-min Rain = 0
KJU1 080623Z 36005KT 04/04 A3019 RMK A01 T00430036  RH  095%=      5-min Rain = 0
KJU1 080624Z 00006KT 04/04 A3019 RMK A01 T00430036  RH  095%=      5-min Rain = 0
KJU1 080625Z 00006KT 04/04 A3019 RMK A01 T00430036  RH  095%=      5-min Rain = 0
KJU1 080626Z 00008KT 04/04 A3018 RMK A01 T00430036  RH  095%=      5-min Rain = 0
KJU1 080627Z 01006KT 04/04 A3018 RMK A01 T00430035  RH  095%=      5-min Rain = 0
KJU1 080628Z 00007KT 04/04 A3018 RMK A01 T00430035  RH  095%=      5-min Rain = 0
KJU1 080629Z 01006KT 04/04 A3018 RMK A01 T00430035  RH  095%=      5-min Rain = 0
KJU1 080630Z 00006KT 04/04 A3017 RMK A01 T00430036  RH  095%=      5-min Rain = 0
KJU1 080631Z 01006KT 04/04 A3017 RMK A01 T00430036  RH  095%=      5-min Rain = 0
KJU1 080632Z 01007KT 04/04 A3017 RMK A01 T00430036  RH  095%=      5-min Rain = 0
KJU1 080633Z 01005KT 04/04 A3018 RMK A01 T00420035  RH  095%=      5-min Rain = 0
KJU1 080634Z 01006KT 04/03 A3018 RMK A01 T00420034  RH  095%=      5-min Rain = 0
KJU1 080635Z 01006KT 04/03 A3018 RMK A01 T00420034  RH  095%=      5-min Rain = 0
KJU1 080636Z 01006KT 04/04 A3018 RMK A01 T00420035  RH  095%=      5-min Rain = 0
KJU1 080637Z 01009KT 04/04 A3017 RMK A01 T00420035  RH  095%=      5-min Rain = 0
KJU1 080638Z 01007KT 04/03 A3017 RMK A01 T00420033  RH  094%=      5-min Rain = 0
KJU1 080639Z 01006KT 04/03 A3017 RMK A01 T00410033  RH  094%=      5-min Rain = 0
KJU1 080640Z 01008KT 04/03 A3017 RMK A01 T00410033  RH  095%=      5-min Rain = 0
KJU1 080641Z 02008KT 04/03 A3017 RMK A01 T00410033  RH  095%=      5-min Rain = 0
KJU1 080642Z 01009KT 04/03 A3016 RMK A01 T00410033  RH  095%=      5-min Rain = 0
KJU1 080643Z 02008KT 04/03 A3016 RMK A01 T00410033  RH  095%=      5-min Rain = 0
KJU1 080644Z 03009KT 04/03 A3016 RMK A01 T00410033  RH  095%=      5-min Rain = 0
KJU1 080645Z 02007KT 04/03 A3016 RMK A01 T00410033  RH  095%=      5-min Rain = 0
KJU1 080646Z 02008KT 04/03 A3017 RMK A01 T00410033  RH  095%=      5-min Rain = 0
KJU1 080647Z 01008KT 04/03 A3017 RMK A01 T00410033  RH  095%=      5-min Rain = 0
KJU1 080648Z 02006KT 04/03 A3017 RMK A01 T00410033  RH  095%=      5-min Rain = 0
KJU1 080649Z 01006KT 04/03 A3017 RMK A01 T00410033  RH  095%=      5-min Rain = 0
KJU1 080650Z 01006KT 04/03 A3017 RMK A01 T00410033  RH  095%=      5-min Rain = 0
KJU1 080651Z 01007KT 04/03 A3017 RMK A01 T00410034  RH  095%=      5-min Rain = 0
KJU1 080652Z 02007KT 04/03 A3017 RMK A01 T00410034  RH  095%=      5-min Rain = 0
KJU1 080653Z 01007KT 04/03 A3017 RMK A01 T00410033  RH  095%=      5-min Rain = 0
KJU1 080654Z 01007KT 04/03 A3017 RMK A01 T00410033  RH  095%=      5-min Rain = 0
KJU1 080655Z 02007KT 04/03 A3017 RMK A01 T00410033  RH  095%=      5-min Rain = 0
KJU1 080656Z 02005KT 04/03 A3017 RMK A01 T00410033  RH  095%=      5-min Rain = 0
KJU1 080657Z 02007KT 04/03 A3017 RMK A01 T00410034  RH  095%=      5-min Rain = 0
KJU1 080658Z 02007KT 04/03 A3017 RMK A01 T00410034  RH  095%=      5-min Rain = 0
KJU1 080659Z 02006KT 04/03 A3017 RMK A01 T00410034  RH  095%=      5-min Rain = 0
KJU1 080700Z 02005KT 04/03 A3017 RMK A01 T00410034  RH  095%=      5-min Rain = 0
KJU1 080701Z 02006KT 04/03 A3017 RMK A01 T00410034  RH  095%=      5-min Rain = 0
KJU1 080702Z 02008KT 04/03 A3017 RMK A01 T00410034  RH  095%=      5-min Rain = 0
KJU1 080703Z 02007KT 04/03 A3017 RMK A01 T00410034  RH  095%=      5-min Rain = 0
KJU1 080704Z 02006KT 04/03 A3017 RMK A01 T00410034  RH  095%=      5-min Rain = 0
KJU1 080705Z 02006KT 04/03 A3017 RMK A01 T00410034  RH  095%=      5-min Rain = 0
KJU1 080706Z 01005KT 04/03 A3017 RMK A01 T00410034  RH  095%=      5-min Rain = 0
KJU1 080707Z 01007KT 04/03 A3017 RMK A01 T00410034  RH  095%=      5-min Rain = 0
KJU1 080708Z 01005KT 04/03 A3018 RMK A01 T00410034  RH  095%=      5-min Rain = 0
KJU1 080709Z 01005KT 04/03 A3018 RMK A01 T00410034  RH  095%=      5-min Rain = 0
KJU1 080710Z 01004KT 04/03 A3018 RMK A01 T00410034  RH  095%=      5-min Rain = 0
KJU1 080711Z 01003KT 04/03 A3018 RMK A01 T00410034  RH  095%=      5-min Rain = 0
KJU1 080712Z 02006KT 04/03 A3018 RMK A01 T00410034  RH  095%=      5-min Rain = 0
KJU1 080713Z 02006KT 04/03 A3018 RMK A01 T00410034  RH  095%=      5-min Rain = 0
KJU1 080714Z 01005KT 04/03 A3018 RMK A01 T00410034  RH  095%=      5-min Rain = 0
KJU1 080715Z 36005KT 04/03 A3018 RMK A01 T00410034  RH  095%=      5-min Rain = 0
KJU1 080716Z 01005KT 04/03 A3018 RMK A01 T00410034  RH  095%=      5-min Rain = 0
KJU1 080717Z 36006KT 04/03 A3018 RMK A01 T00410034  RH  095%=      5-min Rain = 0
KJU1 080718Z 01005KT 04/03 A3018 RMK A01 T00410034  RH  095%=      5-min Rain = 0
KJU1 080719Z 02004KT 04/03 A3017 RMK A01 T00410034  RH  095%=      5-min Rain = 0
KJU1 080720Z 01004KT 04/03 A3017 RMK A01 T00410034  RH  095%=      5-min Rain = 0
KJU1 080721Z 02005KT 04/04 A3017 RMK A01 T00420035  RH  095%=      5-min Rain = 0
KJU1 080722Z 01006KT 04/04 A3017 RMK A01 T00420035  RH  095%=      5-min Rain = 0
KJU1 080723Z 01006KT 04/04 A3017 RMK A01 T00420035  RH  095%=      5-min Rain = 0
KJU1 080724Z 02005KT 04/04 A3017 RMK A01 T00420035  RH  095%=      5-min Rain = 0
KJU1 080725Z 02008KT 04/04 A3017 RMK A01 T00420035  RH  095%=      5-min Rain = 0
KJU1 080726Z 03007KT 04/04 A3017 RMK A01 T00410035  RH  095%=      5-min Rain = 0
KJU1 080727Z 02006KT 04/03 A3017 RMK A01 T00410034  RH  095%=      5-min Rain = 0
KJU1 080728Z 03008KT 04/03 A3017 RMK A01 T00410034  RH  095%=      5-min Rain = 0
KJU1 080729Z 02009KT 04/03 A3017 RMK A01 T00410034  RH  095%=      5-min Rain = 0
KJU1 080730Z 02009KT 04/03 A3017 RMK A01 T00410034  RH  095%=      5-min Rain = 0
KJU1 080731Z 01007KT 04/03 A3018 RMK A01 T00410034  RH  095%=      5-min Rain = 0
KJU1 080732Z 01006KT 04/03 A3018 RMK A01 T00400033  RH  095%=      5-min Rain = 0
KJU1 080733Z 01005KT 04/03 A3018 RMK A01 T00400033  RH  095%=      5-min Rain = 0
KJU1 080734Z 01004KT 04/03 A3018 RMK A01 T00400034  RH  095%=      5-min Rain = 0
KJU1 080735Z 01004KT 04/03 A3018 RMK A01 T00400034  RH  095%=      5-min Rain = 0
KJU1 080736Z 01005KT 04/03 A3018 RMK A01 T00400034  RH  095%=      5-min Rain = 0
KJU1 080737Z 02004KT 04/03 A3018 RMK A01 T00400034  RH  096%=      5-min Rain = 0
KJU1 080738Z 02005KT 04/03 A3018 RMK A01 T00410034  RH  096%=      5-min Rain = 0
KJU1 080739Z 02005KT 04/03 A3018 RMK A01 T00400034  RH  096%=      5-min Rain = 0
KJU1 080740Z 01004KT 04/03 A3018 RMK A01 T00400034  RH  096%=      5-min Rain = 0
KJU1 080741Z 01004KT 04/03 A3018 RMK A01 T00400034  RH  096%=      5-min Rain = 0
KJU1 080742Z 01005KT 04/04 A3018 RMK A01 T00400035  RH  096%=      5-min Rain = 0
KJU1 080743Z 01004KT 04/04 A3017 RMK A01 T00400035  RH  096%=      5-min Rain = 0
KJU1 080744Z 01005KT 04/03 A3017 RMK A01 T00400034  RH  096%=      5-min Rain = 0
KJU1 080745Z 00005KT 04/04 A3017 RMK A01 T00400035  RH  096%=      5-min Rain = 0
KJU1 080746Z 00004KT 04/03 A3017 RMK A01 T00400034  RH  096%=      5-min Rain = 0
KJU1 080747Z 01006KT 04/03 A3017 RMK A01 T00400034  RH  096%=      5-min Rain = 0
KJU1 080748Z 01006KT 04/03 A3017 RMK A01 T00400034  RH  096%=      5-min Rain = 0
KJU1 080749Z 01004KT 04/04 A3017 RMK A01 T00400035  RH  096%=      5-min Rain = 0
KJU1 080750Z 03005KT 04/04 A3017 RMK A01 T00400035  RH  096%=      5-min Rain = 0
KJU1 080751Z 02006KT 04/04 A3017 RMK A01 T00400035  RH  097%=      5-min Rain = 0
KJU1 080752Z 02007KT 04/04 A3017 RMK A01 T00400035  RH  097%=      5-min Rain = 0
KJU1 080753Z 02007KT 04/04 A3017 RMK A01 T00400035  RH  097%=      5-min Rain = 0
KJU1 080754Z 02006KT 04/04 A3017 RMK A01 T00390035  RH  097%=      5-min Rain = 0
KJU1 080755Z 02005KT 04/03 A3017 RMK A01 T00390034  RH  097%=      5-min Rain = 0
KJU1 080756Z 02005KT 04/04 A3017 RMK A01 T00390035  RH  097%=      5-min Rain = 0
KJU1 080757Z 02006KT 04/04 A3017 RMK A01 T00390035  RH  097%=      5-min Rain = 0
KJU1 080758Z 01006KT 04/04 A3017 RMK A01 T00390035  RH  097%=      5-min Rain = 0
KJU1 080759Z 01003KT 04/04 A3017 RMK A01 T00390035  RH  097%=      5-min Rain = 0
KJU1 080800Z 02005KT 04/04 A3017 RMK A01 T00390035  RH  097%=      5-min Rain = 0
KJU1 080801Z 01006KT 04/04 A3017 RMK A01 T00390035  RH  097%=      5-min Rain = 0
KJU1 080802Z 01006KT 04/04 A3017 RMK A01 T00390035  RH  097%=      5-min Rain = 0
KJU1 080803Z 02005KT 04/04 A3017 RMK A01 T00400036  RH  097%=      5-min Rain = 0
KJU1 080804Z 03007KT 04/04 A3017 RMK A01 T00390035  RH  097%=      5-min Rain = 0
KJU1 080805Z 03006KT 04/04 A3017 RMK A01 T00390035  RH  097%=      5-min Rain = 0
KJU1 080806Z 02006KT 04/04 A3017 RMK A01 T00390035  RH  097%=      5-min Rain = 0
KJU1 080807Z 02006KT 04/04 A3017 RMK A01 T00390035  RH  097%=      5-min Rain = 0
KJU1 080808Z 02006KT 04/04 A3017 RMK A01 T00390035  RH  097%=      5-min Rain = 0
KJU1 080809Z 02008KT 04/04 A3016 RMK A01 T00390035  RH  097%=      5-min Rain = 0
KJU1 080810Z 02008KT 04/04 A3016 RMK A01 T00390035  RH  097%=      5-min Rain = 0
KJU1 080811Z 01008KT 04/04 A3016 RMK A01 T00380035  RH  097%=      5-min Rain = 0
KJU1 080812Z 01009KT 04/04 A3016 RMK A01 T00390035  RH  097%=      5-min Rain = 0
KJU1 080813Z 02008KT 04/04 A3016 RMK A01 T00380035  RH  097%=      5-min Rain = 0
KJU1 080814Z 01008KT 04/04 A3016 RMK A01 T00380035  RH  097%=      5-min Rain = 0
KJU1 080815Z 01007KT 04/04 A3016 RMK A01 T00380035  RH  097%=      5-min Rain = 0
KJU1 080816Z 02007KT 04/04 A3016 RMK A01 T00380035  RH  097%=      5-min Rain = 0
KJU1 080817Z 02007KT 04/04 A3016 RMK A01 T00380035  RH  097%=      5-min Rain = 0
KJU1 080818Z 01006KT 04/04 A3016 RMK A01 T00390035  RH  097%=      5-min Rain = 0
KJU1 080819Z 01004KT 04/04 A3016 RMK A01 T00390035  RH  097%=      5-min Rain = 0
KJU1 080820Z 02006KT 04/04 A3016 RMK A01 T00380035  RH  098%=      5-min Rain = 0
KJU1 080821Z 01005KT 04/04 A3016 RMK A01 T00390035  RH  098%=      5-min Rain = 0
KJU1 080822Z 02005KT 04/04 A3016 RMK A01 T00380035  RH  098%=      5-min Rain = 0
KJU1 080823Z 02004KT 04/04 A3016 RMK A01 T00380035  RH  098%=      5-min Rain = 0
KJU1 080824Z 01007KT 04/04 A3016 RMK A01 T00390035  RH  098%=      5-min Rain = 0
KJU1 080825Z 02006KT 04/04 A3016 RMK A01 T00380035  RH  098%=      5-min Rain = 0
KJU1 080826Z 02006KT 04/04 A3016 RMK A01 T00390035  RH  098%=      5-min Rain = 0
KJU1 080827Z 02004KT 04/04 A3016 RMK A01 T00390035  RH  098%=      5-min Rain = 0
KJU1 080828Z 02004KT 04/04 A3017 RMK A01 T00380035  RH  098%=      5-min Rain = 0
KJU1 080829Z 01004KT 04/04 A3017 RMK A01 T00380035  RH  098%=      5-min Rain = 0
KJU1 080830Z 01005KT 04/04 A3017 RMK A01 T00380035  RH  098%=      5-min Rain = 0
KJU1 080831Z 01005KT 04/04 A3017 RMK A01 T00380035  RH  098%=      5-min Rain = 0
KJU1 080832Z 02007KT 04/04 A3017 RMK A01 T00380035  RH  098%=      5-min Rain = 0
KJU1 080833Z 02007KT 04/04 A3017 RMK A01 T00380035  RH  098%=      5-min Rain = 0
KJU1 080834Z 02007KT 04/04 A3017 RMK A01 T00380035  RH  098%=      5-min Rain = 0
KJU1 080835Z 02007KT 04/04 A3016 RMK A01 T00380035  RH  098%=      5-min Rain = 0
KJU1 080836Z 02007KT 04/04 A3016 RMK A01 T00380035  RH  098%=      5-min Rain = 0
KJU1 080837Z 02005KT 04/04 A3016 RMK A01 T00380035  RH  098%=      5-min Rain = 0
KJU1 080838Z 01007KT 04/04 A3016 RMK A01 T00380035  RH  098%=      5-min Rain = 0
KJU1 080839Z 01007KT 04/04 A3015 RMK A01 T00390036  RH  098%=      5-min Rain = 0
KJU1 080840Z 00007KT 04/04 A3015 RMK A01 T00380035  RH  098%=      5-min Rain = 0
KJU1 080841Z 02008KT 04/04 A3015 RMK A01 T00380035  RH  098%=      5-min Rain = 0
KJU1 080842Z 01007KT 04/04 A3015 RMK A01 T00380035  RH  098%=      5-min Rain = 0
KJU1 080843Z 01006KT 04/04 A3015 RMK A01 T00380035  RH  098%=      5-min Rain = 0
KJU1 080844Z 01006KT 04/04 A3015 RMK A01 T00380035  RH  098%=      5-min Rain = 0
KJU1 080845Z 36005KT 04/04 A3015 RMK A01 T00380035  RH  098%=      5-min Rain = 0
KJU1 080846Z 01008KT 04/04 A3015 RMK A01 T00370035  RH  098%=      5-min Rain = 0
KJU1 080847Z 36008KT 04/04 A3015 RMK A01 T00380035  RH  098%=      5-min Rain = 0
KJU1 080848Z 00008KT 04/03 A3015 RMK A01 T00370034  RH  098%=      5-min Rain = 0
KJU1 080849Z 35007KT 04/03 A3015 RMK A01 T00370034  RH  098%=      5-min Rain = 0
KJU1 080850Z 00009KT 04/03 A3015 RMK A01 T00370034  RH  098%=      5-min Rain = 0
KJU1 080851Z 01006KT 04/03 A3016 RMK A01 T00370033  RH  098%=      5-min Rain = 0
KJU1 080852Z 01009KT 04/03 A3016 RMK A01 T00370033  RH  098%=      5-min Rain = 0
KJU1 080853Z 01007KT 04/03 A3016 RMK A01 T00360033  RH  098%=      5-min Rain = 0
KJU1 080854Z 01007KT 04/03 A3016 RMK A01 T00360033  RH  098%=      5-min Rain = 0
KJU1 080855Z 01008KT 04/03 A3016 RMK A01 T00360033  RH  098%=      5-min Rain = 0
KJU1 080856Z 02007KT 04/03 A3016 RMK A01 T00360033  RH  098%=      5-min Rain = 0
KJU1 080857Z 01006KT 04/03 A3016 RMK A01 T00360033  RH  098%=      5-min Rain = 0
KJU1 080858Z 01008KT 04/03 A3016 RMK A01 T00360033  RH  098%=      5-min Rain = 0
KJU1 080859Z 01007KT 04/03 A3016 RMK A01 T00360033  RH  098%=      5-min Rain = 0
KJU1 080900Z 00005KT 04/03 A3016 RMK A01 T00360033  RH  098%=      5-min Rain = 0
KJU1 080901Z 02008KT 04/03 A3016 RMK A01 T00360033  RH  098%=      5-min Rain = 0
KJU1 080902Z 01006KT 04/03 A3016 RMK A01 T00360033  RH  098%=      5-min Rain = 0
KJU1 080903Z 01007KT 04/03 A3016 RMK A01 T00360033  RH  098%=      5-min Rain = 0
KJU1 080904Z 01006KT 04/03 A3016 RMK A01 T00360033  RH  098%=      5-min Rain = 0
KJU1 080905Z 02006KT 04/03 A3016 RMK A01 T00360033  RH  098%=      5-min Rain = 0
KJU1 080906Z 03005KT 04/03 A3016 RMK A01 T00360033  RH  098%=      5-min Rain = 0
KJU1 080907Z 01009KT 04/03 A3016 RMK A01 T00360033  RH  098%=      5-min Rain = 0
KJU1 080908Z 02006KT 04/03 A3016 RMK A01 T00360033  RH  098%=      5-min Rain = 0
KJU1 080909Z 02004KT 04/03 A3016 RMK A01 T00360033  RH  098%=      5-min Rain = 0
KJU1 080910Z 01004KT 04/03 A3016 RMK A01 T00360033  RH  098%=      5-min Rain = 0
KJU1 080911Z 01006KT 04/03 A3017 RMK A01 T00360033  RH  098%=      5-min Rain = 0
KJU1 080912Z 02006KT 04/03 A3017 RMK A01 T00360033  RH  098%=      5-min Rain = 0
KJU1 080913Z 01007KT 04/03 A3017 RMK A01 T00360034  RH  098%=      5-min Rain = 0
KJU1 080914Z 36005KT 04/03 A3016 RMK A01 T00360034  RH  098%=      5-min Rain = 0
KJU1 080915Z 02007KT 04/03 A3016 RMK A01 T00360033  RH  098%=      5-min Rain = 0
KJU1 080916Z 02008KT 04/03 A3016 RMK A01 T00360033  RH  098%=      5-min Rain = 0
KJU1 080917Z 02008KT 04/03 A3016 RMK A01 T00360033  RH  098%=      5-min Rain = 0
KJU1 080918Z 01007KT 04/03 A3016 RMK A01 T00360033  RH  098%=      5-min Rain = 0
KJU1 080919Z 02006KT 04/03 A3017 RMK A01 T00360032  RH  098%=      5-min Rain = 0
KJU1 080920Z 02006KT 04/03 A3017 RMK A01 T00360032  RH  098%=      5-min Rain = 0
KJU1 080921Z 03007KT 04/03 A3017 RMK A01 T00360032  RH  098%=      5-min Rain = 0
KJU1 080922Z 03007KT 04/03 A3017 RMK A01 T00360032  RH  098%=      5-min Rain = 0
KJU1 080923Z 03007KT 04/03 A3016 RMK A01 T00360032  RH  098%=      5-min Rain = 0
KJU1 080924Z 02007KT 04/03 A3016 RMK A01 T00360032  RH  098%=      5-min Rain = 0
KJU1 080925Z 03006KT 04/03 A3016 RMK A01 T00360032  RH  097%=      5-min Rain = 0
KJU1 080926Z 02007KT 04/03 A3016 RMK A01 T00360032  RH  097%=      5-min Rain = 0
KJU1 080927Z 02006KT 04/03 A3017 RMK A01 T00360032  RH  097%=      5-min Rain = 0
KJU1 080928Z 02006KT 04/03 A3017 RMK A01 T00360033  RH  098%=      5-min Rain = 0
KJU1 080929Z 02005KT 04/03 A3017 RMK A01 T00360033  RH  097%=      5-min Rain = 0
KJU1 080930Z 02006KT 04/03 A3017 RMK A01 T00360033  RH  098%=      5-min Rain = 0
KJU1 080931Z 02006KT 04/03 A3016 RMK A01 T00360032  RH  097%=      5-min Rain = 0
KJU1 080932Z 02007KT 04/03 A3016 RMK A01 T00360033  RH  098%=      5-min Rain = 0
KJU1 080933Z 02005KT 04/03 A3017 RMK A01 T00360032  RH  098%=      5-min Rain = 0
KJU1 080934Z 02006KT 04/03 A3017 RMK A01 T00360032  RH  097%=      5-min Rain = 0
KJU1 080935Z 02006KT 04/03 A3017 RMK A01 T00360032  RH  097%=      5-min Rain = 0
KJU1 080936Z 01006KT 04/03 A3017 RMK A01 T00360032  RH  097%=      5-min Rain = 0
KJU1 080937Z 01006KT 04/03 A3017 RMK A01 T00360032  RH  097%=      5-min Rain = 0
KJU1 080938Z 01005KT 04/03 A3017 RMK A01 T00360032  RH  098%=      5-min Rain = 0
KJU1 080939Z 01008KT 04/03 A3017 RMK A01 T00360032  RH  098%=      5-min Rain = 0
KJU1 080940Z 00007KT 04/03 A3017 RMK A01 T00360032  RH  097%=      5-min Rain = 0
KJU1 080941Z 00005KT 04/03 A3017 RMK A01 T00360032  RH  097%=      5-min Rain = 0
KJU1 080942Z 00007KT 04/03 A3017 RMK A01 T00360032  RH  097%=      5-min Rain = 0
KJU1 080943Z 00006KT 04/03 A3017 RMK A01 T00360031  RH  097%=      5-min Rain = 0
KJU1 080944Z 01005KT 04/03 A3017 RMK A01 T00360031  RH  097%=      5-min Rain = 0
KJU1 080945Z 00005KT 04/03 A3017 RMK A01 T00360031  RH  097%=      5-min Rain = 0
KJU1 080946Z 01005KT 04/03 A3017 RMK A01 T00360031  RH  097%=      5-min Rain = 0
KJU1 080947Z 36006KT 04/03 A3017 RMK A01 T00360031  RH  097%=      5-min Rain = 0
KJU1 080948Z 36005KT 04/03 A3017 RMK A01 T00360031  RH  097%=      5-min Rain = 0
KJU1 080949Z 00005KT 04/03 A3017 RMK A01 T00360031  RH  097%=      5-min Rain = 0
KJU1 080950Z 01007KT 04/03 A3017 RMK A01 T00360030  RH  096%=      5-min Rain = 0
KJU1 080951Z 35006KT 04/03 A3017 RMK A01 T00360030  RH  096%=      5-min Rain = 0
KJU1 080952Z 36008KT 04/03 A3017 RMK A01 T00350030  RH  096%=      5-min Rain = 0
KJU1 080953Z 36007KT 04/03 A3017 RMK A01 T00350030  RH  096%=      5-min Rain = 0
KJU1 080954Z 36007KT 04/03 A3017 RMK A01 T00350030  RH  096%=      5-min Rain = 0
KJU1 080955Z 01006KT 04/03 A3017 RMK A01 T00350029  RH  096%=      5-min Rain = 0
KJU1 080956Z 36005KT 04/03 A3017 RMK A01 T00350030  RH  096%=      5-min Rain = 0
KJU1 080957Z 01007KT 04/03 A3017 RMK A01 T00350030  RH  096%=      5-min Rain = 0
KJU1 080958Z 01007KT 04/03 A3017 RMK A01 T00350029  RH  096%=      5-min Rain = 0
KJU1 080959Z 00006KT 04/03 A3017 RMK A01 T00350029  RH  096%=      5-min Rain = 0
KJU1 081000Z 35006KT 04/03 A3018 RMK A01 T00350029  RH  096%=      5-min Rain = 0
KJU1 081001Z 36006KT 04/03 A3018 RMK A01 T00350029  RH  096%=      5-min Rain = 0
KJU1 081002Z 36006KT 04/03 A3018 RMK A01 T00350029  RH  096%=      5-min Rain = 0
KJU1 081003Z 00005KT 04/03 A3018 RMK A01 T00350029  RH  096%=      5-min Rain = 0
KJU1 081004Z 35005KT 04/03 A3018 RMK A01 T00350029  RH  096%=      5-min Rain = 0
KJU1 081005Z 00007KT 04/03 A3017 RMK A01 T00350029  RH  096%=      5-min Rain = 0
KJU1 081006Z 36005KT 04/03 A3017 RMK A01 T00350029  RH  096%=      5-min Rain = 0
KJU1 081007Z 35005KT 04/03 A3017 RMK A01 T00350030  RH  096%=      5-min Rain = 0
KJU1 081008Z 35005KT 04/03 A3017 RMK A01 T00350030  RH  096%=      5-min Rain = 0
KJU1 081009Z 35006KT 04/03 A3017 RMK A01 T00350030  RH  096%=      5-min Rain = 0
KJU1 081010Z 36007KT 04/03 A3017 RMK A01 T00350030  RH  096%=      5-min Rain = 0
KJU1 081011Z 00006KT 04/03 A3017 RMK A01 T00350029  RH  096%=      5-min Rain = 0
KJU1 081012Z 36007KT 04/03 A3017 RMK A01 T00350029  RH  096%=      5-min Rain = 0
KJU1 081013Z 00004KT 03/03 A3017 RMK A01 T00340029  RH  096%=      5-min Rain = 0
KJU1 081014Z 00004KT 03/03 A3017 RMK A01 T00340029  RH  096%=      5-min Rain = 0
KJU1 081015Z 36005KT 03/03 A3017 RMK A01 T00340029  RH  097%=      5-min Rain = 0
KJU1 081016Z 00006KT 03/03 A3017 RMK A01 T00340029  RH  097%=      5-min Rain = 0
KJU1 081017Z 36005KT 03/03 A3017 RMK A01 T00340029  RH  097%=      5-min Rain = 0
KJU1 081018Z 01007KT 03/03 A3017 RMK A01 T00340030  RH  097%=      5-min Rain = 0
KJU1 081019Z 35006KT 03/03 A3017 RMK A01 T00340029  RH  097%=      5-min Rain = 0.01
KJU1 081020Z 35005KT 03/03 A3016 RMK A01 T00340029  RH  097%=      5-min Rain = 0
KJU1 081021Z 01005KT 03/03 A3016 RMK A01 T00340029  RH  097%=      5-min Rain = 0
KJU1 081022Z 00007KT 03/03 A3016 RMK A01 T00340029  RH  097%=      5-min Rain = 0
KJU1 081023Z 36006KT 03/03 A3016 RMK A01 T00330029  RH  097%=      5-min Rain = 0
KJU1 081024Z 01005KT 03/03 A3016 RMK A01 T00330029  RH  097%=      5-min Rain = 0
KJU1 081025Z 00004KT 03/03 A3016 RMK A01 T00330029  RH  097%=      5-min Rain = 0
KJU1 081026Z 01005KT 03/03 A3016 RMK A01 T00330029  RH  097%=      5-min Rain = 0
KJU1 081027Z 01007KT 03/03 A3016 RMK A01 T00330029  RH  097%=      5-min Rain = 0
KJU1 081028Z 01006KT 03/03 A3016 RMK A01 T00340030  RH  097%=      5-min Rain = 0
KJU1 081029Z 01006KT 03/03 A3016 RMK A01 T00340030  RH  097%=      5-min Rain = 0
KJU1 081030Z 01005KT 03/03 A3016 RMK A01 T00330029  RH  097%=      5-min Rain = 0
KJU1 081031Z 01005KT 03/03 A3016 RMK A01 T00330029  RH  098%=      5-min Rain = 0
KJU1 081032Z 00006KT 03/03 A3016 RMK A01 T00330030  RH  098%=      5-min Rain = 0
KJU1 081033Z 01005KT 03/03 A3016 RMK A01 T00330030  RH  098%=      5-min Rain = 0
KJU1 081034Z 00004KT 03/03 A3016 RMK A01 T00330030  RH  098%=      5-min Rain = 0
KJU1 081035Z 35003KT 03/03 A3016 RMK A01 T00330030  RH  098%=      5-min Rain = 0
KJU1 081036Z 00004KT 03/03 A3017 RMK A01 T00330030  RH  098%=      5-min Rain = 0
KJU1 081037Z 35003KT 03/03 A3017 RMK A01 T00330030  RH  098%=      5-min Rain = 0
KJU1 081038Z 00005KT 03/03 A3017 RMK A01 T00330030  RH  098%=      5-min Rain = 0
KJU1 081039Z 01003KT 03/03 A3017 RMK A01 T00330030  RH  098%=      5-min Rain = 0
KJU1 081040Z 01003KT 03/03 A3017 RMK A01 T00330030  RH  098%=      5-min Rain = 0
KJU1 081041Z 34003KT 03/03 A3017 RMK A01 T00330030  RH  098%=      5-min Rain = 0
KJU1 081042Z 36003KT 03/03 A3017 RMK A01 T00330031  RH  098%=      5-min Rain = 0
KJU1 081043Z 01002KT 03/03 A3017 RMK A01 T00330031  RH  098%=      5-min Rain = 0
KJU1 081044Z 35003KT 03/03 A3017 RMK A01 T00330031  RH  098%=      5-min Rain = 0
KJU1 081045Z 34004KT 03/03 A3017 RMK A01 T00330031  RH  099%=      5-min Rain = 0
KJU1 081046Z 36004KT 03/03 A3017 RMK A01 T00330031  RH  099%=      5-min Rain = 0
KJU1 081047Z 36005KT 03/03 A3017 RMK A01 T00330031  RH  099%=      5-min Rain = 0
KJU1 081048Z 36005KT 03/03 A3017 RMK A01 T00330031  RH  099%=      5-min Rain = 0.01
KJU1 081049Z 35004KT 03/03 A3017 RMK A01 T00330031  RH  099%=      5-min Rain = 0
KJU1 081050Z 35003KT 03/03 A3017 RMK A01 T00330031  RH  099%=      5-min Rain = 0
KJU1 081051Z 36005KT 03/03 A3017 RMK A01 T00330031  RH  099%=      5-min Rain = 0
KJU1 081052Z 35005KT 03/03 A3017 RMK A01 T00330031  RH  099%=      5-min Rain = 0
KJU1 081053Z 34005KT 03/03 A3017 RMK A01 T00330031  RH  099%=      5-min Rain = 0
KJU1 081054Z 35005KT 03/03 A3017 RMK A01 T00330031  RH  099%=      5-min Rain = 0
KJU1 081055Z 00003KT 03/03 A3016 RMK A01 T00330031  RH  099%=      5-min Rain = 0
KJU1 081056Z 36004KT 03/03 A3016 RMK A01 T00330031  RH  099%=      5-min Rain = 0
KJU1 081057Z 00004KT 03/03 A3016 RMK A01 T00330031  RH  099%=      5-min Rain = 0
KJU1 081058Z 01004KT 03/03 A3016 RMK A01 T00330031  RH  099%=      5-min Rain = 0
KJU1 081059Z 02004KT 03/03 A3016 RMK A01 T00330031  RH  099%=      5-min Rain = 0
KJU1 081100Z 01005KT 03/03 A3016 RMK A01 T00330031  RH  099%=      5-min Rain = 0
KJU1 081101Z 35003KT 03/03 A3016 RMK A01 T00330031  RH  099%=      5-min Rain = 0
KJU1 081102Z 00003KT 03/03 A3016 RMK A01 T00330032  RH  099%=      5-min Rain = 0
KJU1 081103Z 01004KT 03/03 A3016 RMK A01 T00330032  RH  099%=      5-min Rain = 0
KJU1 081104Z 00003KT 03/03 A3017 RMK A01 T00340032  RH  099%=      5-min Rain = 0
KJU1 081105Z 36003KT 03/03 A3017 RMK A01 T00330032  RH  099%=      5-min Rain = 0
KJU1 081106Z 36004KT 03/03 A3017 RMK A01 T00330032  RH  099%=      5-min Rain = 0
KJU1 081107Z 00004KT 03/03 A3017 RMK A01 T00330032  RH  099%=      5-min Rain = 0
KJU1 081108Z 35003KT 03/03 A3017 RMK A01 T00330032  RH  099%=      5-min Rain = 0
KJU1 081109Z 01003KT 03/03 A3017 RMK A01 T00330032  RH  099%=      5-min Rain = 0
KJU1 081110Z 36003KT 03/03 A3017 RMK A01 T00330032  RH  099%=      5-min Rain = 0
KJU1 081111Z 00002KT 03/03 A3017 RMK A01 T00330032  RH  099%=      5-min Rain = 0
KJU1 081112Z 01003KT 03/03 A3017 RMK A01 T00330032  RH  099%=      5-min Rain = 0
KJU1 081113Z 01004KT 03/03 A3017 RMK A01 T00330032  RH  099%=      5-min Rain = 0
KJU1 081114Z 01004KT 03/03 A3017 RMK A01 T00330032  RH  099%=      5-min Rain = 0
KJU1 081115Z 02004KT 03/03 A3017 RMK A01 T00330032  RH  099%=      5-min Rain = 0
KJU1 081116Z 01004KT 03/03 A3017 RMK A01 T00330032  RH  099%=      5-min Rain = 0
KJU1 081117Z 36003KT 03/03 A3017 RMK A01 T00330032  RH  099%=      5-min Rain = 0
KJU1 081118Z 01002KT 03/03 A3017 RMK A01 T00330032  RH  099%=      5-min Rain = 0
KJU1 081119Z 02003KT 03/03 A3017 RMK A01 T00330032  RH  099%=      5-min Rain = 0
KJU1 081120Z 01004KT 03/03 A3017 RMK A01 T00340033  RH  099%=      5-min Rain = 0
KJU1 081121Z 00004KT 03/03 A3017 RMK A01 T00340032  RH  099%=      5-min Rain = 0
KJU1 081122Z 01004KT 03/03 A3017 RMK A01 T00330032  RH  099%=      5-min Rain = 0
KJU1 081123Z 02003KT 03/03 A3017 RMK A01 T00340032  RH  099%=      5-min Rain = 0
KJU1 081124Z 01003KT 03/03 A3017 RMK A01 T00330032  RH  099%=      5-min Rain = 0
KJU1 081125Z 01003KT 03/03 A3017 RMK A01 T00340033  RH  099%=      5-min Rain = 0
KJU1 081126Z 35003KT 03/03 A3017 RMK A01 T00340033  RH  099%=      5-min Rain = 0
KJU1 081127Z 35004KT 03/03 A3017 RMK A01 T00340033  RH  099%=      5-min Rain = 0
KJU1 081128Z 36004KT 03/03 A3017 RMK A01 T00340033  RH  099%=      5-min Rain = 0
KJU1 081129Z 36004KT 03/03 A3017 RMK A01 T00340033  RH  099%=      5-min Rain = 0
KJU1 081130Z 35004KT 03/03 A3017 RMK A01 T00340033  RH  099%=      5-min Rain = 0
KJU1 081131Z 00003KT 03/03 A3017 RMK A01 T00340033  RH  099%=      5-min Rain = 0
KJU1 081132Z 01005KT 03/03 A3017 RMK A01 T00340033  RH  099%=      5-min Rain = 0
KJU1 081133Z 00005KT 03/03 A3017 RMK A01 T00340033  RH  099%=      5-min Rain = 0
KJU1 081134Z 00006KT 03/03 A3017 RMK A01 T00340033  RH  099%=      5-min Rain = 0
KJU1 081135Z 01004KT 03/03 A3017 RMK A01 T00340033  RH  099%=      5-min Rain = 0
KJU1 081136Z 01006KT 03/03 A3017 RMK A01 T00340033  RH  099%=      5-min Rain = 0
KJU1 081137Z 01005KT 03/03 A3017 RMK A01 T00340033  RH  099%=      5-min Rain = 0
KJU1 081138Z 00003KT 03/03 A3017 RMK A01 T00340033  RH  099%=      5-min Rain = 0
KJU1 081139Z 01003KT 03/03 A3017 RMK A01 T00340033  RH  099%=      5-min Rain = 0.01
KJU1 081140Z 01004KT 03/03 A3018 RMK A01 T00340033  RH  099%=      5-min Rain = 0
KJU1 081141Z 35003KT 03/03 A3018 RMK A01 T00340033  RH  099%=      5-min Rain = 0
KJU1 081142Z 02003KT 03/03 A3018 RMK A01 T00340033  RH  099%=      5-min Rain = 0
KJU1 081143Z 02002KT 03/03 A3018 RMK A01 T00340033  RH  099%=      5-min Rain = 0
KJU1 081144Z 01003KT 03/03 A3018 RMK A01 T00340034  RH  099%=      5-min Rain = 0
KJU1 081145Z 01004KT 03/03 A3018 RMK A01 T00340033  RH  099%=      5-min Rain = 0
KJU1 081146Z 02004KT 03/03 A3018 RMK A01 T00340033  RH  099%=      5-min Rain = 0
KJU1 081147Z 01002KT 03/03 A3018 RMK A01 T00340033  RH  099%=      5-min Rain = 0
KJU1 081148Z 01003KT 03/03 A3018 RMK A01 T00340033  RH  099%=      5-min Rain = 0
KJU1 081149Z 01002KT 03/03 A3018 RMK A01 T00340033  RH  099%=      5-min Rain = 0
KJU1 081150Z 01002KT 03/03 A3018 RMK A01 T00340033  RH  099%=      5-min Rain = 0
KJU1 081151Z 01003KT 04/03 A3018 RMK A01 T00350034  RH  099%=      5-min Rain = 0
KJU1 081152Z 01003KT 03/03 A3018 RMK A01 T00340033  RH  099%=      5-min Rain = 0
KJU1 081153Z 36003KT 03/03 A3018 RMK A01 T00340033  RH  099%=      5-min Rain = 0
KJU1 081154Z 01002KT 03/03 A3018 RMK A01 T00340033  RH  099%=      5-min Rain = 0
KJU1 081155Z 01002KT 03/03 A3019 RMK A01 T00340033  RH  099%=      5-min Rain = 0
KJU1 081156Z 02002KT 03/03 A3019 RMK A01 T00340033  RH  099%=      5-min Rain = 0
KJU1 081157Z 36002KT 03/03 A3019 RMK A01 T00340033  RH  099%=      5-min Rain = 0
KJU1 081158Z 00003KT 03/03 A3019 RMK A01 T00340033  RH  099%=      5-min Rain = 0
KJU1 081159Z 01002KT 03/03 A3019 RMK A01 T00340033  RH  099%=      5-min Rain = 0
KJU1 081200Z 00002KT 03/03 A3019 RMK A01 T00340033  RH  099%=      5-min Rain = 0
KJU1 081201Z 00002KT 03/03 A3019 RMK A01 T00340033  RH  099%=      5-min Rain = 0
KJU1 081202Z 00002KT 03/03 A3019 RMK A01 T00340033  RH  099%=      5-min Rain = 0
KJU1 081203Z 00003KT 03/03 A3019 RMK A01 T00340033  RH  099%=      5-min Rain = 0
KJU1 081204Z 35003KT 03/03 A3019 RMK A01 T00340033  RH  099%=      5-min Rain = 0
KJU1 081205Z 36003KT 04/03 A3019 RMK A01 T00350033  RH  099%=      5-min Rain = 0
KJU1 081206Z 01003KT 03/03 A3019 RMK A01 T00340033  RH  099%=      5-min Rain = 0
KJU1 081207Z 01002KT 03/03 A3019 RMK A01 T00340033  RH  099%=      5-min Rain = 0
KJU1 081208Z 00002KT 04/03 A3019 RMK A01 T00350034  RH  099%=      5-min Rain = 0
KJU1 081209Z 01002KT 04/03 A3019 RMK A01 T00350034  RH  099%=      5-min Rain = 0
KJU1 081210Z 02002KT 04/03 A3019 RMK A01 T00350034  RH  099%=      5-min Rain = 0
KJU1 081211Z 02003KT 04/03 A3018 RMK A01 T00350034  RH  099%=      5-min Rain = 0
KJU1 081212Z 01002KT 04/03 A3018 RMK A01 T00350034  RH  099%=      5-min Rain = 0
KJU1 081213Z 01002KT 04/03 A3018 RMK A01 T00350034  RH  099%=      5-min Rain = 0
KJU1 081214Z 00002KT 04/03 A3018 RMK A01 T00350034  RH  099%=      5-min Rain = 0
KJU1 081215Z 35003KT 04/03 A3018 RMK A01 T00350034  RH  099%=      5-min Rain = 0
KJU1 081216Z 00003KT 04/03 A3019 RMK A01 T00350034  RH  099%=      5-min Rain = 0
KJU1 081217Z 35003KT 04/03 A3019 RMK A01 T00350034  RH  099%=      5-min Rain = 0
KJU1 081218Z 34003KT 04/03 A3019 RMK A01 T00350034  RH  099%=      5-min Rain = 0
KJU1 081219Z 00003KT 04/03 A3019 RMK A01 T00350034  RH  099%=      5-min Rain = 0
KJU1 081220Z 01003KT 04/03 A3019 RMK A01 T00350034  RH  099%=      5-min Rain = 0
KJU1 081221Z 36003KT 04/03 A3019 RMK A01 T00350034  RH  099%=      5-min Rain = 0
KJU1 081222Z 34003KT 04/03 A3019 RMK A01 T00350034  RH  099%=      5-min Rain = 0
KJU1 081223Z 34004KT 04/03 A3019 RMK A01 T00350034  RH  099%=      5-min Rain = 0
KJU1 081224Z 35004KT 04/03 A3019 RMK A01 T00350034  RH  099%=      5-min Rain = 0
KJU1 081225Z 00004KT 04/03 A3019 RMK A01 T00350034  RH  099%=      5-min Rain = 0
KJU1 081226Z 35004KT 04/03 A3019 RMK A01 T00350034  RH  099%=      5-min Rain = 0
KJU1 081227Z 35003KT 04/03 A3019 RMK A01 T00350034  RH  099%=      5-min Rain = 0
KJU1 081228Z 35004KT 04/03 A3019 RMK A01 T00350034  RH  099%=      5-min Rain = 0
KJU1 081229Z 00004KT 04/03 A3019 RMK A01 T00350034  RH  099%=      5-min Rain = 0
KJU1 081230Z 01004KT 04/03 A3019 RMK A01 T00350033  RH  099%=      5-min Rain = 0
KJU1 081231Z 01004KT 04/03 A3019 RMK A01 T00350033  RH  099%=      5-min Rain = 0
KJU1 081232Z 00004KT 04/03 A3019 RMK A01 T00350034  RH  099%=      5-min Rain = 0
KJU1 081233Z 00004KT 04/03 A3019 RMK A01 T00350033  RH  099%=      5-min Rain = 0
KJU1 081234Z 00003KT 04/03 A3019 RMK A01 T00350033  RH  099%=      5-min Rain = 0
KJU1 081235Z 36004KT 04/03 A3019 RMK A01 T00350033  RH  099%=      5-min Rain = 0
KJU1 081236Z 00003KT 04/03 A3019 RMK A01 T00350034  RH  099%=      5-min Rain = 0
KJU1 081237Z 02003KT 04/03 A3019 RMK A01 T00350034  RH  099%=      5-min Rain = 0
KJU1 081238Z 00003KT 04/03 A3019 RMK A01 T00350034  RH  099%=      5-min Rain = 0
KJU1 081239Z 00001KT 04/03 A3019 RMK A01 T00350034  RH  099%=      5-min Rain = 0
KJU1 081240Z 34002KT 04/03 A3019 RMK A01 T00350034  RH  099%=      5-min Rain = 0
KJU1 081241Z 34003KT 04/03 A3019 RMK A01 T00350034  RH  099%=      5-min Rain = 0
KJU1 081242Z 34003KT 04/03 A3019 RMK A01 T00350034  RH  099%=      5-min Rain = 0
KJU1 081243Z 00003KT 04/03 A3019 RMK A01 T00350034  RH  099%=      5-min Rain = 0
KJU1 081244Z 00003KT 04/03 A3019 RMK A01 T00350034  RH  099%=      5-min Rain = 0
KJU1 081245Z 00003KT 04/03 A3019 RMK A01 T00350034  RH  099%=      5-min Rain = 0
KJU1 081246Z 36003KT 04/03 A3019 RMK A01 T00350034  RH  099%=      5-min Rain = 0
KJU1 081247Z 36003KT 04/03 A3019 RMK A01 T00350034  RH  099%=      5-min Rain = 0
KJU1 081248Z 36004KT 04/03 A3019 RMK A01 T00350034  RH  099%=      5-min Rain = 0
KJU1 081249Z 36003KT 04/03 A3019 RMK A01 T00350034  RH  099%=      5-min Rain = 0
KJU1 081250Z 01002KT 04/03 A3019 RMK A01 T00350034  RH  099%=      5-min Rain = 0
KJU1 081251Z 34003KT 04/03 A302 RMK A01 T00350034  RH  099%=      5-min Rain = 0
KJU1 081252Z 36003KT 04/03 A302 RMK A01 T00350034  RH  099%=      5-min Rain = 0
KJU1 081253Z 00002KT 04/03 A302 RMK A01 T00350034  RH  099%=      5-min Rain = 0
KJU1 081254Z 35003KT 04/03 A302 RMK A01 T00350034  RH  099%=      5-min Rain = 0
KJU1 081255Z 35003KT 04/03 A302 RMK A01 T00350034  RH  099%=      5-min Rain = 0
KJU1 081256Z 00003KT 04/03 A302 RMK A01 T00350034  RH  099%=      5-min Rain = 0
KJU1 081257Z 01002KT 04/03 A302 RMK A01 T00350034  RH  099%=      5-min Rain = 0
KJU1 081258Z 01003KT 04/03 A302 RMK A01 T00360034  RH  099%=      5-min Rain = 0
KJU1 081259Z 01004KT 04/03 A302 RMK A01 T00360034  RH  099%=      5-min Rain = 0
KJU1 081300Z 36003KT 04/03 A302 RMK A01 T00360034  RH  099%=      5-min Rain = 0
KJU1 081301Z 01004KT 04/04 A302 RMK A01 T00360035  RH  099%=      5-min Rain = 0
KJU1 081302Z 36003KT 04/04 A302 RMK A01 T00360035  RH  099%=      5-min Rain = 0
KJU1 081303Z 01004KT 04/03 A302 RMK A01 T00360034  RH  099%=      5-min Rain = 0
KJU1 081304Z 00004KT 04/03 A302 RMK A01 T00360034  RH  099%=      5-min Rain = 0
KJU1 081305Z 34005KT 04/03 A3019 RMK A01 T00360034  RH  099%=      5-min Rain = 0
KJU1 081306Z 00005KT 04/04 A3019 RMK A01 T00360035  RH  099%=      5-min Rain = 0
KJU1 081307Z 36005KT 04/04 A3019 RMK A01 T00360035  RH  099%=      5-min Rain = 0
KJU1 081308Z 35006KT 04/04 A3019 RMK A01 T00360035  RH  099%=      5-min Rain = 0
KJU1 081309Z 00008KT 04/04 A3019 RMK A01 T00360035  RH  099%=      5-min Rain = 0
KJU1 081310Z 35007KT 04/03 A3019 RMK A01 T00360034  RH  099%=      5-min Rain = 0
KJU1 081311Z 35006KT 04/03 A3019 RMK A01 T00360034  RH  099%=      5-min Rain = 0
KJU1 081312Z 00007KT 04/04 A302 RMK A01 T00360035  RH  099%=      5-min Rain = 0
KJU1 081313Z 01005KT 04/03 A302 RMK A01 T00360034  RH  099%=      5-min Rain = 0
KJU1 081314Z 01006KT 04/03 A302 RMK A01 T00360034  RH  099%=      5-min Rain = 0
KJU1 081315Z 36005KT 04/03 A302 RMK A01 T00360034  RH  099%=      5-min Rain = 0
KJU1 081316Z 36005KT 04/03 A302 RMK A01 T00360034  RH  099%=      5-min Rain = 0
KJU1 081317Z 36006KT 04/03 A302 RMK A01 T00360034  RH  099%=      5-min Rain = 0
KJU1 081318Z 36007KT 04/03 A302 RMK A01 T00360034  RH  099%=      5-min Rain = 0
KJU1 081319Z 35006KT 04/03 A302 RMK A01 T00350033  RH  099%=      5-min Rain = 0
KJU1 081320Z 35007KT 04/03 A302 RMK A01 T00350033  RH  099%=      5-min Rain = 0
KJU1 081321Z 35006KT 04/03 A302 RMK A01 T00350033  RH  099%=      5-min Rain = 0
KJU1 081322Z 34009KT 04/03 A302 RMK A01 T00350032  RH  098%=      5-min Rain = 0
KJU1 081323Z 35009G14KT 03/03 A302 RMK A01 T00340032  RH  098%=      5-min Rain = 0
KJU1 081324Z 34007KT 03/03 A302 RMK A01 T00340031  RH  098%=      5-min Rain = 0
KJU1 081325Z 35007KT 03/03 A3021 RMK A01 T00330030  RH  098%=      5-min Rain = 0
KJU1 081326Z 34007KT 03/03 A3021 RMK A01 T00340030  RH  098%=      5-min Rain = 0
KJU1 081327Z 35008KT 03/03 A3021 RMK A01 T00330030  RH  098%=      5-min Rain = 0
KJU1 081328Z 35006KT 03/03 A3021 RMK A01 T00340030  RH  097%=      5-min Rain = 0
KJU1 081329Z 35009KT 03/03 A3021 RMK A01 T00330029  RH  097%=      5-min Rain = 0
KJU1 081330Z 35008KT 03/03 A3021 RMK A01 T00330029  RH  097%=      5-min Rain = 0
KJU1 081331Z 35007KT 03/03 A3021 RMK A01 T00330028  RH  097%=      5-min Rain = 0
KJU1 081332Z 35007KT 03/03 A3021 RMK A01 T00330028  RH  097%=      5-min Rain = 0
KJU1 081333Z 36008KT 03/03 A3021 RMK A01 T00330028  RH  096%=      5-min Rain = 0
KJU1 081334Z 35008KT 03/03 A3021 RMK A01 T00330028  RH  096%=      5-min Rain = 0
KJU1 081335Z 34008KT 03/03 A3021 RMK A01 T00330027  RH  096%=      5-min Rain = 0
KJU1 081336Z 36006KT 03/03 A3021 RMK A01 T00330027  RH  096%=      5-min Rain = 0
KJU1 081337Z 36007KT 03/03 A3021 RMK A01 T00330027  RH  096%=      5-min Rain = 0
KJU1 081338Z 36005KT 03/03 A3021 RMK A01 T00330027  RH  096%=      5-min Rain = 0
KJU1 081339Z 35005KT 03/03 A3021 RMK A01 T00330027  RH  096%=      5-min Rain = 0
KJU1 081340Z 36007KT 03/03 A3021 RMK A01 T00330027  RH  096%=      5-min Rain = 0
KJU1 081341Z 00006KT 03/03 A3021 RMK A01 T00340027  RH  096%=      5-min Rain = 0
KJU1 081342Z 36007KT 03/03 A3021 RMK A01 T00330027  RH  096%=      5-min Rain = 0
KJU1 081343Z 36005KT 03/03 A3022 RMK A01 T00330027  RH  096%=      5-min Rain = 0
KJU1 081344Z 36006KT 03/03 A3022 RMK A01 T00330027  RH  096%=      5-min Rain = 0
KJU1 081345Z 01005KT 03/03 A3022 RMK A01 T00330027  RH  095%=      5-min Rain = 0
KJU1 081346Z 35005KT 03/03 A3022 RMK A01 T00330027  RH  096%=      5-min Rain = 0
KJU1 081347Z 35005KT 03/03 A3022 RMK A01 T00330027  RH  096%=      5-min Rain = 0
KJU1 081348Z 35006KT 03/03 A3022 RMK A01 T00340027  RH  096%=      5-min Rain = 0
KJU1 081349Z 35005KT 03/03 A3022 RMK A01 T00330027  RH  096%=      5-min Rain = 0
KJU1 081350Z 36005KT 03/03 A3022 RMK A01 T00330027  RH  096%=      5-min Rain = 0
KJU1 081351Z 35005KT 03/03 A3022 RMK A01 T00340028  RH  096%=      5-min Rain = 0
KJU1 081352Z 35004KT 03/03 A3022 RMK A01 T00330027  RH  096%=      5-min Rain = 0
KJU1 081353Z 35004KT 03/03 A3022 RMK A01 T00330028  RH  096%=      5-min Rain = 0
KJU1 081354Z 36003KT 03/03 A3022 RMK A01 T00330028  RH  096%=      5-min Rain = 0
KJU1 081355Z 36004KT 03/03 A3022 RMK A01 T00340028  RH  096%=      5-min Rain = 0
KJU1 081356Z 00003KT 03/03 A3022 RMK A01 T00330028  RH  096%=      5-min Rain = 0
KJU1 081357Z 35004KT 03/03 A3022 RMK A01 T00330028  RH  096%=      5-min Rain = 0
KJU1 081358Z 00003KT 03/03 A3022 RMK A01 T00330028  RH  097%=      5-min Rain = 0
KJU1 081359Z 35003KT 03/03 A3022 RMK A01 T00340029  RH  097%=      5-min Rain = 0
KJU1 081400Z 01003KT 03/03 A3022 RMK A01 T00330029  RH  097%=      5-min Rain = 0
KJU1 081401Z 35003KT 03/03 A3022 RMK A01 T00340029  RH  097%=      5-min Rain = 0
KJU1 081402Z 00004KT 03/03 A3022 RMK A01 T00340029  RH  097%=      5-min Rain = 0
KJU1 081403Z 01003KT 03/03 A3023 RMK A01 T00340029  RH  097%=      5-min Rain = 0
KJU1 081404Z 01005KT 03/03 A3023 RMK A01 T00340030  RH  097%=      5-min Rain = 0
KJU1 081405Z 36003KT 03/03 A3023 RMK A01 T00340030  RH  097%=      5-min Rain = 0
KJU1 081406Z 01003KT 03/03 A3023 RMK A01 T00340030  RH  097%=      5-min Rain = 0
KJU1 081407Z 35005KT 03/03 A3023 RMK A01 T00340030  RH  097%=      5-min Rain = 0
KJU1 081408Z 35005KT 03/03 A3023 RMK A01 T00340030  RH  097%=      5-min Rain = 0
KJU1 081409Z 36003KT 03/03 A3023 RMK A01 T00330029  RH  097%=      5-min Rain = 0
KJU1 081410Z 00006KT 03/03 A3023 RMK A01 T00330029  RH  097%=      5-min Rain = 0
KJU1 081411Z 00007KT 03/03 A3022 RMK A01 T00330029  RH  097%=      5-min Rain = 0
KJU1 081412Z 36006KT 03/03 A3022 RMK A01 T00330028  RH  097%=      5-min Rain = 0
KJU1 081413Z 36008KT 03/03 A3022 RMK A01 T00330028  RH  097%=      5-min Rain = 0
KJU1 081414Z 00010KT 03/03 A3022 RMK A01 T00330028  RH  097%=      5-min Rain = 0
KJU1 081415Z 35008KT 03/03 A3023 RMK A01 T00330028  RH  096%=      5-min Rain = 0
KJU1 081416Z 00008KT 03/03 A3023 RMK A01 T00330028  RH  096%=      5-min Rain = 0
KJU1 081417Z 36006KT 03/03 A3023 RMK A01 T00330028  RH  096%=      5-min Rain = 0
KJU1 081418Z 01004KT 03/03 A3023 RMK A01 T00330028  RH  096%=      5-min Rain = 0
KJU1 081419Z 02005KT 03/03 A3023 RMK A01 T00340028  RH  096%=      5-min Rain = 0.01
KJU1 081420Z 02006KT 03/03 A3023 RMK A01 T00330028  RH  096%=      5-min Rain = 0
KJU1 081421Z 03005KT 03/03 A3023 RMK A01 T00330027  RH  096%=      5-min Rain = 0
KJU1 081422Z 02008KT 03/03 A3023 RMK A01 T00340028  RH  096%=      5-min Rain = 0
KJU1 081423Z 02008KT 03/03 A3023 RMK A01 T00340028  RH  096%=      5-min Rain = 0
KJU1 081424Z 02006KT 03/03 A3023 RMK A01 T00340027  RH  096%=      5-min Rain = 0
KJU1 081425Z 36005KT 03/03 A3023 RMK A01 T00340027  RH  095%=      5-min Rain = 0
KJU1 081426Z 35006KT 03/03 A3023 RMK A01 T00340027  RH  095%=      5-min Rain = 0
KJU1 081427Z 36004KT 03/03 A3023 RMK A01 T00340027  RH  095%=      5-min Rain = 0
KJU1 081428Z 01005KT 03/03 A3023 RMK A01 T00340027  RH  095%=      5-min Rain = 0
KJU1 081429Z 01004KT 03/03 A3023 RMK A01 T00340027  RH  095%=      5-min Rain = 0
KJU1 081430Z 00004KT 03/03 A3023 RMK A01 T00340027  RH  095%=      5-min Rain = 0
KJU1 081431Z 01008KT 03/03 A3023 RMK A01 T00340027  RH  095%=      5-min Rain = 0
KJU1 081432Z 36007KT 03/03 A3023 RMK A01 T00340027  RH  095%=      5-min Rain = 0
KJU1 081433Z 00007KT 03/03 A3023 RMK A01 T00340026  RH  094%=      5-min Rain = 0
KJU1 081434Z 00005KT 03/03 A3024 RMK A01 T00340025  RH  094%=      5-min Rain = 0
KJU1 081435Z 01006KT 03/03 A3024 RMK A01 T00340025  RH  094%=      5-min Rain = 0
KJU1 081436Z 01005KT 03/03 A3024 RMK A01 T00340025  RH  094%=      5-min Rain = 0
KJU1 081437Z 01005KT 03/03 A3024 RMK A01 T00340025  RH  094%=      5-min Rain = 0
KJU1 081438Z 00005KT 03/03 A3024 RMK A01 T00340025  RH  094%=      5-min Rain = 0
KJU1 081439Z 35003KT 03/03 A3024 RMK A01 T00340026  RH  094%=      5-min Rain = 0
KJU1 081440Z 36003KT 04/03 A3024 RMK A01 T00350026  RH  094%=      5-min Rain = 0
KJU1 081441Z 35005KT 04/03 A3024 RMK A01 T00350027  RH  094%=      5-min Rain = 0
KJU1 081442Z 00004KT 04/03 A3024 RMK A01 T00350027  RH  095%=      5-min Rain = 0
KJU1 081443Z 35004KT 04/03 A3024 RMK A01 T00350028  RH  095%=      5-min Rain = 0
KJU1 081444Z 34003KT 04/03 A3024 RMK A01 T00350027  RH  095%=      5-min Rain = 0
KJU1 081445Z 36004KT 04/03 A3024 RMK A01 T00350028  RH  095%=      5-min Rain = 0
KJU1 081446Z 34005KT 04/03 A3024 RMK A01 T00350028  RH  095%=      5-min Rain = 0
KJU1 081447Z 00003KT 04/03 A3024 RMK A01 T00350028  RH  095%=      5-min Rain = 0
KJU1 081448Z 34005KT 04/03 A3024 RMK A01 T00350028  RH  095%=      5-min Rain = 0
KJU1 081449Z 35004KT 04/03 A3024 RMK A01 T00350028  RH  095%=      5-min Rain = 0
KJU1 081450Z 35006KT 04/03 A3024 RMK A01 T00350028  RH  095%=      5-min Rain = 0
KJU1 081451Z 35008KT 04/03 A3024 RMK A01 T00350027  RH  095%=      5-min Rain = 0
KJU1 081452Z 00007KT 03/03 A3024 RMK A01 T00340026  RH  095%=      5-min Rain = 0
KJU1 081453Z 36008KT 03/03 A3024 RMK A01 T00340026  RH  094%=      5-min Rain = 0
KJU1 081454Z 35007KT 03/03 A3024 RMK A01 T00340025  RH  094%=      5-min Rain = 0
KJU1 081455Z 35008KT 03/03 A3024 RMK A01 T00340025  RH  094%=      5-min Rain = 0
KJU1 081456Z 36007KT 03/02 A3024 RMK A01 T00340024  RH  094%=      5-min Rain = 0
KJU1 081457Z 36007KT 03/02 A3024 RMK A01 T00340024  RH  093%=      5-min Rain = 0
KJU1 081458Z 00008KT 03/02 A3024 RMK A01 T00340024  RH  093%=      5-min Rain = 0
KJU1 081459Z 35006KT 03/02 A3024 RMK A01 T00340023  RH  093%=      5-min Rain = 0
KJU1 081500Z 01005KT 03/02 A3024 RMK A01 T00340023  RH  093%=      5-min Rain = 0
KJU1 081501Z 00007KT 03/02 A3024 RMK A01 T00340024  RH  093%=      5-min Rain = 0
KJU1 081502Z 36010KT 03/02 A3024 RMK A01 T00340023  RH  093%=      5-min Rain = 0
KJU1 081503Z 00008KT 03/02 A3025 RMK A01 T00340023  RH  092%=      5-min Rain = 0
KJU1 081504Z 36007KT 03/02 A3025 RMK A01 T00340023  RH  092%=      5-min Rain = 0
KJU1 081505Z 01007KT 03/02 A3025 RMK A01 T00340023  RH  093%=      5-min Rain = 0
KJU1 081506Z 00007G12KT 03/02 A3025 RMK A01 T00340023  RH  093%=      5-min Rain = 0
KJU1 081507Z 36009KT 03/02 A3025 RMK A01 T00330023  RH  093%=      5-min Rain = 0
KJU1 081508Z 35006KT 03/02 A3025 RMK A01 T00330022  RH  093%=      5-min Rain = 0
KJU1 081509Z 35004KT 03/02 A3025 RMK A01 T00330022  RH  093%=      5-min Rain = 0
KJU1 081510Z 35004KT 03/02 A3025 RMK A01 T00330024  RH  093%=      5-min Rain = 0
KJU1 081511Z 00006KT 03/02 A3025 RMK A01 T00330024  RH  094%=      5-min Rain = 0
KJU1 081512Z 36008KT 03/02 A3025 RMK A01 T00330023  RH  093%=      5-min Rain = 0
KJU1 081513Z 35008KT 03/02 A3025 RMK A01 T00320022  RH  093%=      5-min Rain = 0
KJU1 081514Z 35007KT 03/02 A3025 RMK A01 T00320021  RH  093%=      5-min Rain = 0
KJU1 081515Z 34009KT 03/02 A3025 RMK A01 T00320021  RH  093%=      5-min Rain = 0
KJU1 081516Z 36008KT 03/02 A3025 RMK A01 T00320022  RH  093%=      5-min Rain = 0
KJU1 081517Z 35010KT 03/02 A3025 RMK A01 T00320021  RH  093%=      5-min Rain = 0
KJU1 081518Z 35008KT 03/02 A3025 RMK A01 T00320021  RH  092%=      5-min Rain = 0
KJU1 081519Z 35007KT 03/02 A3025 RMK A01 T00330022  RH  093%=      5-min Rain = 0
KJU1 081520Z 36005KT 03/02 A3025 RMK A01 T00330022  RH  093%=      5-min Rain = 0
KJU1 081521Z 36005KT 03/02 A3025 RMK A01 T00330022  RH  093%=      5-min Rain = 0
KJU1 081522Z 36006KT 03/02 A3025 RMK A01 T00330023  RH  093%=      5-min Rain = 0
KJU1 081523Z 35007KT 03/02 A3025 RMK A01 T00340023  RH  093%=      5-min Rain = 0
KJU1 081524Z 01006KT 03/02 A3025 RMK A01 T00330023  RH  093%=      5-min Rain = 0
KJU1 081525Z 36007KT 03/02 A3025 RMK A01 T00330023  RH  093%=      5-min Rain = 0
KJU1 081526Z 00006KT 03/02 A3025 RMK A01 T00330023  RH  093%=      5-min Rain = 0
KJU1 081527Z 36005KT 03/02 A3025 RMK A01 T00330023  RH  093%=      5-min Rain = 0
KJU1 081528Z 36007KT 03/02 A3025 RMK A01 T00340023  RH  093%=      5-min Rain = 0
KJU1 081529Z 00007KT 03/02 A3025 RMK A01 T00340022  RH  092%=      5-min Rain = 0
KJU1 081530Z 00006KT 03/02 A3025 RMK A01 T00340022  RH  092%=      5-min Rain = 0
KJU1 081531Z 36006KT 03/02 A3025 RMK A01 T00340022  RH  092%=      5-min Rain = 0
KJU1 081532Z 35008KT 03/02 A3025 RMK A01 T00340022  RH  092%=      5-min Rain = 0
KJU1 081533Z 36008KT 03/02 A3025 RMK A01 T00340022  RH  092%=      5-min Rain = 0
KJU1 081534Z 36008KT 03/02 A3025 RMK A01 T00340021  RH  091%=      5-min Rain = 0
KJU1 081535Z 00007KT 03/02 A3026 RMK A01 T00340020  RH  091%=      5-min Rain = 0
KJU1 081536Z 35006KT 03/02 A3026 RMK A01 T00340020  RH  091%=      5-min Rain = 0
KJU1 081537Z 35005KT 03/02 A3026 RMK A01 T00340021  RH  091%=      5-min Rain = 0
KJU1 081538Z 35005KT 03/02 A3026 RMK A01 T00340021  RH  091%=      5-min Rain = 0
KJU1 081539Z 35005KT 03/02 A3026 RMK A01 T00340021  RH  091%=      5-min Rain = 0
KJU1 081540Z 35004KT 03/02 A3026 RMK A01 T00340022  RH  092%=      5-min Rain = 0
KJU1 081541Z 34005KT 03/02 A3026 RMK A01 T00340022  RH  092%=      5-min Rain = 0
KJU1 081542Z 36004KT 03/02 A3026 RMK A01 T00340022  RH  092%=      5-min Rain = 0
KJU1 081543Z 35005KT 04/02 A3026 RMK A01 T00350023  RH  092%=      5-min Rain = 0
KJU1 081544Z 35005KT 04/02 A3026 RMK A01 T00350024  RH  092%=      5-min Rain = 0
KJU1 081545Z 33006KT 04/02 A3026 RMK A01 T00350023  RH  092%=      5-min Rain = 0
KJU1 081546Z 34007KT 04/02 A3026 RMK A01 T00350023  RH  092%=      5-min Rain = 0
KJU1 081547Z 34008KT 04/02 A3026 RMK A01 T00350022  RH  091%=      5-min Rain = 0
KJU1 081548Z 35008KT 04/02 A3026 RMK A01 T00350022  RH  091%=      5-min Rain = 0
KJU1 081549Z 34007KT 04/02 A3026 RMK A01 T00350021  RH  091%=      5-min Rain = 0
KJU1 081550Z 35007KT 04/02 A3026 RMK A01 T00350022  RH  091%=      5-min Rain = 0
KJU1 081551Z 35008KT 04/02 A3026 RMK A01 T00350022  RH  091%=      5-min Rain = 0
KJU1 081552Z 34007KT 04/02 A3026 RMK A01 T00350022  RH  091%=      5-min Rain = 0
KJU1 081553Z 35006KT 04/02 A3026 RMK A01 T00350023  RH  091%=      5-min Rain = 0
KJU1 081554Z 35006KT 04/02 A3026 RMK A01 T00360024  RH  092%=      5-min Rain = 0
KJU1 081555Z 36010KT 04/02 A3026 RMK A01 T00360024  RH  092%=      5-min Rain = 0
KJU1 081556Z 35008KT 04/02 A3026 RMK A01 T00360023  RH  092%=      5-min Rain = 0
KJU1 081557Z 34006KT 04/02 A3026 RMK A01 T00360024  RH  092%=      5-min Rain = 0
KJU1 081558Z 35005KT 04/02 A3026 RMK A01 T00350024  RH  092%=      5-min Rain = 0
KJU1 081559Z 35006KT 04/02 A3026 RMK A01 T00350024  RH  092%=      5-min Rain = 0
KJU1 081600Z 36006KT 04/02 A3026 RMK A01 T00350024  RH  093%=      5-min Rain = 0
KJU1 081601Z 35005KT 04/03 A3026 RMK A01 T00350025  RH  093%=      5-min Rain = 0
KJU1 081602Z 35007KT 04/03 A3026 RMK A01 T00360025  RH  093%=      5-min Rain = 0
KJU1 081603Z 35010KT 04/03 A3026 RMK A01 T00350025  RH  093%=      5-min Rain = 0
KJU1 081604Z 36010KT 04/03 A3026 RMK A01 T00350025  RH  093%=      5-min Rain = 0
KJU1 081605Z 35007KT 04/02 A3026 RMK A01 T00350024  RH  093%=      5-min Rain = 0
KJU1 081606Z 34005KT 03/02 A3026 RMK A01 T00340024  RH  093%=      5-min Rain = 0
KJU1 081607Z 34009KT 03/02 A3026 RMK A01 T00340024  RH  093%=      5-min Rain = 0
KJU1 081608Z 34007KT 03/02 A3026 RMK A01 T00340024  RH  093%=      5-min Rain = 0
KJU1 081609Z 35007KT 03/02 A3026 RMK A01 T00340024  RH  093%=      5-min Rain = 0
KJU1 081610Z 34009KT 04/02 A3026 RMK A01 T00350024  RH  093%=      5-min Rain = 0
KJU1 081611Z 35006KT 03/02 A3026 RMK A01 T00340024  RH  093%=      5-min Rain = 0
KJU1 081612Z 00005KT 04/02 A3026 RMK A01 T00350024  RH  093%=      5-min Rain = 0
KJU1 081613Z 35005KT 04/02 A3026 RMK A01 T00350024  RH  093%=      5-min Rain = 0
KJU1 081614Z 35006KT 04/03 A3026 RMK A01 T00360025  RH  093%=      5-min Rain = 0
KJU1 081615Z 34008KT 04/03 A3026 RMK A01 T00360025  RH  093%=      5-min Rain = 0
KJU1 081616Z 35008KT 04/03 A3026 RMK A01 T00360025  RH  092%=      5-min Rain = 0
KJU1 081617Z 35007KT 04/02 A3026 RMK A01 T00360024  RH  092%=      5-min Rain = 0
KJU1 081618Z 35006KT 04/02 A3026 RMK A01 T00350023  RH  092%=      5-min Rain = 0
KJU1 081619Z 33006KT 04/02 A3026 RMK A01 T00360024  RH  092%=      5-min Rain = 0
KJU1 081620Z 35007KT 04/02 A3026 RMK A01 T00360024  RH  092%=      5-min Rain = 0
KJU1 081621Z 00006KT 04/02 A3026 RMK A01 T00360024  RH  092%=      5-min Rain = 0
KJU1 081622Z 36005KT 04/03 A3026 RMK A01 T00370025  RH  092%=      5-min Rain = 0
KJU1 081623Z 36006KT 04/03 A3026 RMK A01 T00370025  RH  092%=      5-min Rain = 0
KJU1 081624Z 34006KT 04/03 A3026 RMK A01 T00370025  RH  092%=      5-min Rain = 0
KJU1 081625Z 35007KT 04/03 A3026 RMK A01 T00380025  RH  092%=      5-min Rain = 0
KJU1 081626Z 34004KT 04/03 A3026 RMK A01 T00380025  RH  091%=      5-min Rain = 0
KJU1 081627Z 35004KT 04/03 A3026 RMK A01 T00380025  RH  091%=      5-min Rain = 0
KJU1 081628Z 34006KT 04/03 A3026 RMK A01 T00380025  RH  092%=      5-min Rain = 0
KJU1 081629Z 35006KT 04/03 A3026 RMK A01 T00380026  RH  091%=      5-min Rain = 0
KJU1 081630Z 00006KT 04/03 A3026 RMK A01 T00390025  RH  091%=      5-min Rain = 0
KJU1 081631Z 35006KT 04/03 A3026 RMK A01 T00380025  RH  091%=      5-min Rain = 0
KJU1 081632Z 35006KT 04/03 A3026 RMK A01 T00390025  RH  091%=      5-min Rain = 0
KJU1 081633Z 00006KT 04/03 A3026 RMK A01 T00390026  RH  091%=      5-min Rain = 0
KJU1 081634Z 36007KT 04/03 A3026 RMK A01 T00390026  RH  091%=      5-min Rain = 0
KJU1 081635Z 35007KT 04/03 A3026 RMK A01 T00400026  RH  090%=      5-min Rain = 0
KJU1 081636Z 35006KT 04/02 A3026 RMK A01 T00390024  RH  090%=      5-min Rain = 0
KJU1 081637Z 35008KT 04/03 A3026 RMK A01 T00400025  RH  090%=      5-min Rain = 0
KJU1 081638Z 36008KT 04/02 A3026 RMK A01 T00400024  RH  090%=      5-min Rain = 0
KJU1 081639Z 36009KT 04/02 A3026 RMK A01 T00400023  RH  089%=      5-min Rain = 0
KJU1 081640Z 36008KT 04/02 A3026 RMK A01 T00390022  RH  089%=      5-min Rain = 0
KJU1 081641Z 00005KT 04/02 A3026 RMK A01 T00390022  RH  089%=      5-min Rain = 0
KJU1 081642Z 00006KT 04/02 A3026 RMK A01 T00390024  RH  089%=      5-min Rain = 0
KJU1 081643Z 35005KT 04/02 A3026 RMK A01 T00400024  RH  090%=      5-min Rain = 0
KJU1 081644Z 34005KT 04/03 A3026 RMK A01 T00400025  RH  090%=      5-min Rain = 0
KJU1 081645Z 34004KT 04/03 A3026 RMK A01 T00400025  RH  090%=      5-min Rain = 0
KJU1 081646Z 35006KT 04/03 A3026 RMK A01 T00410026  RH  090%=      5-min Rain = 0
KJU1 081647Z 34004KT 04/03 A3026 RMK A01 T00410026  RH  090%=      5-min Rain = 0
KJU1 081648Z 33005G10KT 04/03 A3026 RMK A01 T00420027  RH  090%=      5-min Rain = 0
KJU1 081649Z 32007KT 04/03 A3026 RMK A01 T00420026  RH  090%=      5-min Rain = 0
KJU1 081650Z 35006KT 04/03 A3026 RMK A01 T00410025  RH  089%=      5-min Rain = 0
KJU1 081651Z 34005KT 04/03 A3026 RMK A01 T00420026  RH  089%=      5-min Rain = 0
KJU1 081652Z 35006KT 04/03 A3026 RMK A01 T00430027  RH  090%=      5-min Rain = 0
KJU1 081653Z 36006KT 04/03 A3026 RMK A01 T00430027  RH  089%=      5-min Rain = 0
KJU1 081654Z 00006KT 04/03 A3026 RMK A01 T00430026  RH  089%=      5-min Rain = 0
KJU1 081655Z 00005KT 04/03 A3026 RMK A01 T00430026  RH  089%=      5-min Rain = 0
KJU1 081656Z 00006KT 04/03 A3026 RMK A01 T00430027  RH  089%=      5-min Rain = 0
KJU1 081657Z 00007KT 04/03 A3026 RMK A01 T00430026  RH  088%=      5-min Rain = 0
KJU1 081658Z 01006KT 04/03 A3026 RMK A01 T00430025  RH  088%=      5-min Rain = 0
KJU1 081659Z 34005KT 04/03 A3026 RMK A01 T00430025  RH  088%=      5-min Rain = 0
KJU1 081700Z 00004KT 04/03 A3026 RMK A01 T00430026  RH  088%=      5-min Rain = 0
KJU1 081701Z 33004KT 04/03 A3026 RMK A01 T00440027  RH  089%=      5-min Rain = 0
KJU1 081702Z 33005KT 04/03 A3026 RMK A01 T00440027  RH  089%=      5-min Rain = 0
KJU1 081703Z 34005KT 04/03 A3026 RMK A01 T00440027  RH  089%=      5-min Rain = 0
KJU1 081704Z 35005KT 04/03 A3026 RMK A01 T00440028  RH  089%=      5-min Rain = 0
KJU1 081705Z 33007KT 05/03 A3026 RMK A01 T00450029  RH  089%=      5-min Rain = 0
KJU1 081706Z 34010KT 04/03 A3026 RMK A01 T00440027  RH  088%=      5-min Rain = 0
KJU1 081707Z 35009KT 04/03 A3026 RMK A01 T00430025  RH  088%=      5-min Rain = 0
KJU1 081708Z 34010KT 04/03 A3026 RMK A01 T00420025  RH  088%=      5-min Rain = 0
KJU1 081709Z 32007G14KT 04/03 A3027 RMK A01 T00420025  RH  089%=      5-min Rain = 0
KJU1 081710Z 33008G13KT 04/03 A3027 RMK A01 T00420026  RH  089%=      5-min Rain = 0
KJU1 081711Z 32007KT 04/03 A3027 RMK A01 T00420025  RH  089%=      5-min Rain = 0
KJU1 081712Z 32006G11KT 04/03 A3027 RMK A01 T00420025  RH  089%=      5-min Rain = 0
KJU1 081713Z 33006KT 04/03 A3027 RMK A01 T00420025  RH  089%=      5-min Rain = 0
KJU1 081714Z 32007KT 04/03 A3027 RMK A01 T00420025  RH  089%=      5-min Rain = 0
KJU1 081715Z 33007KT 04/03 A3027 RMK A01 T00420025  RH  089%=      5-min Rain = 0
KJU1 081716Z 34009KT 04/02 A3027 RMK A01 T00420024  RH  088%=      5-min Rain = 0
KJU1 081717Z 36008KT 04/02 A3027 RMK A01 T00420024  RH  088%=      5-min Rain = 0
KJU1 081718Z 36010KT 04/02 A3027 RMK A01 T00420023  RH  088%=      5-min Rain = 0
KJU1 081719Z 36007KT 04/02 A3027 RMK A01 T00420023  RH  087%=      5-min Rain = 0
KJU1 081720Z 34006KT 04/02 A3027 RMK A01 T00420024  RH  088%=      5-min Rain = 0
KJU1 081721Z 36006KT 04/03 A3027 RMK A01 T00430025  RH  088%=      5-min Rain = 0
KJU1 081722Z 35006KT 04/03 A3027 RMK A01 T00430026  RH  088%=      5-min Rain = 0
KJU1 081723Z 34006KT 04/03 A3027 RMK A01 T00440026  RH  088%=      5-min Rain = 0
KJU1 081724Z 34004KT 04/03 A3027 RMK A01 T00440027  RH  088%=      5-min Rain = 0
KJU1 081725Z 35004KT 05/03 A3027 RMK A01 T00450028  RH  089%=      5-min Rain = 0
KJU1 081726Z 33007G12KT 05/03 A3027 RMK A01 T00460029  RH  089%=      5-min Rain = 0
KJU1 081727Z 33007G12KT 05/03 A3027 RMK A01 T00450027  RH  088%=      5-min Rain = 0
KJU1 081728Z 34009KT 05/03 A3027 RMK A01 T00450027  RH  088%=      5-min Rain = 0
KJU1 081729Z 35009KT 04/03 A3026 RMK A01 T00440026  RH  088%=      5-min Rain = 0
KJU1 081730Z 35005KT 04/03 A3026 RMK A01 T00430025  RH  088%=      5-min Rain = 0
KJU1 081731Z 32004KT 04/03 A3026 RMK A01 T00440027  RH  089%=      5-min Rain = 0
KJU1 081732Z 32002KT 05/03 A3026 RMK A01 T00450029  RH  090%=      5-min Rain = 0
KJU1 081733Z 33005KT 05/03 A3026 RMK A01 T00450030  RH  090%=      5-min Rain = 0
KJU1 081734Z 33006KT 05/03 A3026 RMK A01 T00450029  RH  089%=      5-min Rain = 0
KJU1 081735Z 32008KT 05/03 A3026 RMK A01 T00450028  RH  089%=      5-min Rain = 0
KJU1 081736Z 34008KT 04/03 A3026 RMK A01 T00440026  RH  089%=      5-min Rain = 0
KJU1 081737Z 35010G15KT 04/03 A3026 RMK A01 T00430026  RH  088%=      5-min Rain = 0
KJU1 081738Z 34009KT 04/03 A3026 RMK A01 T00430026  RH  088%=      5-min Rain = 0
KJU1 081739Z 33010KT 04/03 A3026 RMK A01 T00430025  RH  088%=      5-min Rain = 0
KJU1 081740Z 34009KT 04/03 A3026 RMK A01 T00430025  RH  088%=      5-min Rain = 0
KJU1 081741Z 34008KT 04/03 A3026 RMK A01 T00420025  RH  088%=      5-min Rain = 0
KJU1 081742Z 35006KT 04/03 A3026 RMK A01 T00420025  RH  088%=      5-min Rain = 0
KJU1 081743Z 33007KT 04/03 A3026 RMK A01 T00430026  RH  089%=      5-min Rain = 0
KJU1 081744Z 35008KT 04/03 A3026 RMK A01 T00430026  RH  089%=      5-min Rain = 0
KJU1 081745Z 33005KT 04/03 A3026 RMK A01 T00440027  RH  089%=      5-min Rain = 0
KJU1 081746Z 33004KT 05/03 A3026 RMK A01 T00450030  RH  090%=      5-min Rain = 0
KJU1 081747Z 35005KT 05/03 A3026 RMK A01 T00460031  RH  090%=      5-min Rain = 0
KJU1 081748Z 34004KT 05/03 A3025 RMK A01 T00470032  RH  090%=      5-min Rain = 0
KJU1 081749Z 35006KT 05/03 A3025 RMK A01 T00480032  RH  089%=      5-min Rain = 0
KJU1 081750Z 35005KT 05/03 A3025 RMK A01 T00470029  RH  088%=      5-min Rain = 0
KJU1 081751Z 34004KT 05/03 A3025 RMK A01 T00460029  RH  089%=      5-min Rain = 0
KJU1 081752Z 33005KT 05/03 A3025 RMK A01 T00460029  RH  089%=      5-min Rain = 0
KJU1 081753Z 34005KT 05/03 A3025 RMK A01 T00460026  RH  087%=      5-min Rain = 0
KJU1 081754Z 36005KT 05/03 A3025 RMK A01 T00450026  RH  087%=      5-min Rain = 0
KJU1 081755Z 36005KT 05/03 A3025 RMK A01 T00450027  RH  088%=      5-min Rain = 0
KJU1 081756Z 35007KT 05/03 A3025 RMK A01 T00450028  RH  088%=      5-min Rain = 0
KJU1 081757Z 33008KT 05/03 A3025 RMK A01 T00460027  RH  088%=      5-min Rain = 0
KJU1 081758Z 34008KT 05/03 A3025 RMK A01 T00450027  RH  088%=      5-min Rain = 0
KJU1 081759Z 34006KT 05/03 A3025 RMK A01 T00450026  RH  088%=      5-min Rain = 0
KJU1 081800Z 33007KT 05/03 A3025 RMK A01 T00450026  RH  088%=      5-min Rain = 0
KJU1 081801Z 33008KT 05/03 A3025 RMK A01 T00450027  RH  088%=      5-min Rain = 0
KJU1 081802Z 33008KT 04/03 A3025 RMK A01 T00440026  RH  088%=      5-min Rain = 0
KJU1 081803Z 32006KT 04/03 A3025 RMK A01 T00440026  RH  088%=      5-min Rain = 0
KJU1 081804Z 34006KT 04/03 A3025 RMK A01 T00440026  RH  088%=      5-min Rain = 0
KJU1 081805Z 35007KT 05/03 A3025 RMK A01 T00450027  RH  088%=      5-min Rain = 0
KJU1 081806Z 36008KT 05/03 A3025 RMK A01 T00450027  RH  088%=      5-min Rain = 0
KJU1 081807Z 35009KT 05/03 A3025 RMK A01 T00450025  RH  087%=      5-min Rain = 0
KJU1 081808Z 35007KT 05/03 A3025 RMK A01 T00450025  RH  087%=      5-min Rain = 0
KJU1 081809Z 35008KT 05/03 A3025 RMK A01 T00450026  RH  087%=      5-min Rain = 0
KJU1 081810Z 35008KT 05/03 A3025 RMK A01 T00460026  RH  087%=      5-min Rain = 0
KJU1 081811Z 34007KT 05/03 A3025 RMK A01 T00460026  RH  087%=      5-min Rain = 0
KJU1 081812Z 34006KT 05/03 A3025 RMK A01 T00460026  RH  087%=      5-min Rain = 0
KJU1 081813Z 34005G10KT 05/03 A3025 RMK A01 T00470028  RH  088%=      5-min Rain = 0
KJU1 081814Z 32006KT 05/03 A3025 RMK A01 T00480029  RH  088%=      5-min Rain = 0
KJU1 081815Z 32008KT 05/03 A3025 RMK A01 T00480028  RH  087%=      5-min Rain = 0
KJU1 081816Z 33008KT 05/03 A3025 RMK A01 T00480027  RH  086%=      5-min Rain = 0
KJU1 081817Z 33006KT 05/03 A3025 RMK A01 T00470026  RH  086%=      5-min Rain = 0
KJU1 081818Z 33006KT 05/03 A3025 RMK A01 T00470027  RH  087%=      5-min Rain = 0
KJU1 081819Z 33006KT 05/03 A3025 RMK A01 T00470027  RH  087%=      5-min Rain = 0
KJU1 081820Z 32005KT 05/03 A3025 RMK A01 T00480028  RH  087%=      5-min Rain = 0
KJU1 081821Z 34005KT 05/03 A3025 RMK A01 T00480029  RH  087%=      5-min Rain = 0
KJU1 081822Z 34005KT 05/03 A3025 RMK A01 T00480029  RH  087%=      5-min Rain = 0
KJU1 081823Z 34008KT 05/03 A3025 RMK A01 T00480027  RH  086%=      5-min Rain = 0
KJU1 081824Z 35008KT 05/03 A3024 RMK A01 T00480026  RH  086%=      5-min Rain = 0
KJU1 081825Z 34006KT 05/03 A3024 RMK A01 T00480026  RH  086%=      5-min Rain = 0
KJU1 081826Z 34007KT 05/03 A3024 RMK A01 T00480028  RH  086%=      5-min Rain = 0
KJU1 081827Z 33007KT 05/03 A3024 RMK A01 T00480026  RH  086%=      5-min Rain = 0
KJU1 081828Z 32006KT 05/03 A3024 RMK A01 T00480027  RH  086%=      5-min Rain = 0
KJU1 081829Z 34006KT 05/03 A3024 RMK A01 T00490028  RH  086%=      5-min Rain = 0
KJU1 081830Z 35009KT 05/03 A3024 RMK A01 T00490029  RH  087%=      5-min Rain = 0
KJU1 081831Z 33008KT 05/03 A3024 RMK A01 T00490028  RH  086%=      5-min Rain = 0
KJU1 081832Z 32005KT 05/03 A3024 RMK A01 T00490027  RH  086%=      5-min Rain = 0
KJU1 081833Z 34007KT 05/03 A3024 RMK A01 T00490028  RH  086%=      5-min Rain = 0
KJU1 081834Z 34007KT 05/03 A3024 RMK A01 T00490028  RH  087%=      5-min Rain = 0
KJU1 081835Z 32005KT 05/03 A3024 RMK A01 T00490029  RH  087%=      5-min Rain = 0
KJU1 081836Z 33005KT 05/03 A3024 RMK A01 T00500030  RH  087%=      5-min Rain = 0
KJU1 081837Z 31005KT 05/03 A3024 RMK A01 T00500030  RH  087%=      5-min Rain = 0
KJU1 081838Z 32005KT 05/03 A3024 RMK A01 T00500031  RH  088%=      5-min Rain = 0
KJU1 081839Z 31008KT 05/03 A3024 RMK A01 T00500031  RH  088%=      5-min Rain = 0
KJU1 081840Z 30007KT 05/03 A3024 RMK A01 T00490030  RH  087%=      5-min Rain = 0
KJU1 081841Z 31007KT 05/03 A3024 RMK A01 T00490029  RH  087%=      5-min Rain = 0
KJU1 081842Z 32007KT 05/03 A3024 RMK A01 T00480029  RH  088%=      5-min Rain = 0
KJU1 081843Z 33004KT 05/03 A3024 RMK A01 T00480030  RH  088%=      5-min Rain = 0
KJU1 081844Z 33007G12KT 05/03 A3024 RMK A01 T00480031  RH  088%=      5-min Rain = 0
KJU1 081845Z 33006KT 05/03 A3024 RMK A01 T00480031  RH  088%=      5-min Rain = 0
KJU1 081846Z 32006KT 05/03 A3024 RMK A01 T00480030  RH  088%=      5-min Rain = 0
KJU1 081847Z 33006KT 05/03 A3024 RMK A01 T00480029  RH  088%=      5-min Rain = 0
KJU1 081848Z 34005KT 05/03 A3024 RMK A01 T00470028  RH  088%=      5-min Rain = 0
KJU1 081849Z 33007KT 05/03 A3024 RMK A01 T00470029  RH  088%=      5-min Rain = 0
KJU1 081850Z 34006KT 05/03 A3023 RMK A01 T00470029  RH  088%=      5-min Rain = 0
KJU1 081851Z 33009KT 05/03 A3023 RMK A01 T00470029  RH  088%=      5-min Rain = 0
KJU1 081852Z 34007KT 05/03 A3023 RMK A01 T00470028  RH  088%=      5-min Rain = 0
KJU1 081853Z 32006KT 05/03 A3023 RMK A01 T00470028  RH  087%=      5-min Rain = 0
KJU1 081854Z 33005KT 05/03 A3023 RMK A01 T00480029  RH  088%=      5-min Rain = 0
KJU1 081855Z 34004KT 05/03 A3023 RMK A01 T00480030  RH  088%=      5-min Rain = 0
KJU1 081856Z 34005KT 05/03 A3023 RMK A01 T00500032  RH  088%=      5-min Rain = 0
KJU1 081857Z 34006KT 05/03 A3023 RMK A01 T00500032  RH  088%=      5-min Rain = 0
KJU1 081858Z 34007KT 05/03 A3023 RMK A01 T00500030  RH  087%=      5-min Rain = 0
KJU1 081859Z 34007KT 05/03 A3023 RMK A01 T00500030  RH  087%=      5-min Rain = 0
KJU1 081900Z 33005KT 05/03 A3023 RMK A01 T00500029  RH  086%=      5-min Rain = 0
KJU1 081901Z 32006KT 05/03 A3023 RMK A01 T00500029  RH  087%=      5-min Rain = 0
KJU1 081902Z 33005KT 05/03 A3023 RMK A01 T00500029  RH  087%=      5-min Rain = 0
KJU1 081903Z 32003KT 05/03 A3023 RMK A01 T00500030  RH  087%=      5-min Rain = 0
KJU1 081904Z 35004KT 05/03 A3023 RMK A01 T00510031  RH  087%=      5-min Rain = 0
KJU1 081905Z 34006KT 05/03 A3023 RMK A01 T00510031  RH  087%=      5-min Rain = 0
KJU1 081906Z 33008KT 05/03 A3023 RMK A01 T00510030  RH  086%=      5-min Rain = 0
KJU1 081907Z 35008KT 05/03 A3023 RMK A01 T00510030  RH  087%=      5-min Rain = 0
KJU1 081908Z 34007KT 05/03 A3023 RMK A01 T00510030  RH  086%=      5-min Rain = 0
KJU1 081909Z 34007KT 05/03 A3023 RMK A01 T00510030  RH  086%=      5-min Rain = 0
KJU1 081910Z 35005KT 05/03 A3023 RMK A01 T00510030  RH  087%=      5-min Rain = 0
KJU1 081911Z 33004KT 05/03 A3023 RMK A01 T00520032  RH  087%=      5-min Rain = 0
KJU1 081912Z 34006KT 05/03 A3023 RMK A01 T00520033  RH  087%=      5-min Rain = 0
KJU1 081913Z 34005KT 05/03 A3023 RMK A01 T00530033  RH  087%=      5-min Rain = 0
KJU1 081914Z 35005KT 05/03 A3023 RMK A01 T00530032  RH  087%=      5-min Rain = 0
KJU1 081915Z 34005KT 05/03 A3023 RMK A01 T00530033  RH  087%=      5-min Rain = 0
KJU1 081916Z 35007KT 05/03 A3023 RMK A01 T00530033  RH  087%=      5-min Rain = 0
KJU1 081917Z 36007KT 05/03 A3022 RMK A01 T00530031  RH  085%=      5-min Rain = 0
KJU1 081918Z 34006KT 05/03 A3022 RMK A01 T00520030  RH  085%=      5-min Rain = 0
KJU1 081919Z 34011KT 05/03 A3022 RMK A01 T00520030  RH  086%=      5-min Rain = 0
KJU1 081920Z 33010KT 05/03 A3022 RMK A01 T00520029  RH  085%=      5-min Rain = 0
KJU1 081921Z 33007KT 05/03 A3022 RMK A01 T00520030  RH  085%=      5-min Rain = 0
KJU1 081922Z 33006KT 05/03 A3022 RMK A01 T00530032  RH  086%=      5-min Rain = 0
KJU1 081923Z 34007KT 05/03 A3022 RMK A01 T00540033  RH  086%=      5-min Rain = 0
KJU1 081924Z 33006KT 05/03 A3022 RMK A01 T00540032  RH  086%=      5-min Rain = 0
KJU1 081925Z 32006KT 05/03 A3022 RMK A01 T00540032  RH  086%=      5-min Rain = 0
KJU1 081926Z 31006KT 05/03 A3022 RMK A01 T00540032  RH  086%=      5-min Rain = 0
KJU1 081927Z 31005KT 05/03 A3022 RMK A01 T00540033  RH  086%=      5-min Rain = 0
KJU1 081928Z 31006KT 06/04 A3022 RMK A01 T00550035  RH  087%=      5-min Rain = 0
KJU1 081929Z 32007KT 06/03 A3022 RMK A01 T00550034  RH  086%=      5-min Rain = 0
KJU1 081930Z 34010KT 06/03 A3022 RMK A01 T00550033  RH  086%=      5-min Rain = 0
KJU1 081931Z 33006KT 05/03 A3022 RMK A01 T00540033  RH  086%=      5-min Rain = 0
KJU1 081932Z 32004KT 05/03 A3022 RMK A01 T00540033  RH  086%=      5-min Rain = 0
KJU1 081933Z 33005KT 06/04 A3022 RMK A01 T00550035  RH  087%=      5-min Rain = 0
KJU1 081934Z 31006KT 06/04 A3022 RMK A01 T00560035  RH  087%=      5-min Rain = 0
KJU1 081935Z 32006KT 06/04 A3022 RMK A01 T00560035  RH  087%=      5-min Rain = 0
KJU1 081936Z 33005KT 06/04 A3022 RMK A01 T00560035  RH  087%=      5-min Rain = 0
KJU1 081937Z 33008KT 06/04 A3022 RMK A01 T00560035  RH  087%=      5-min Rain = 0
KJU1 081938Z 33009KT 06/03 A3022 RMK A01 T00550033  RH  085%=      5-min Rain = 0
KJU1 081939Z 33008KT 06/03 A3022 RMK A01 T00550032  RH  085%=      5-min Rain = 0
KJU1 081940Z 33009KT 06/03 A3022 RMK A01 T00550032  RH  086%=      5-min Rain = 0
KJU1 081941Z 33008KT 06/03 A3022 RMK A01 T00550032  RH  085%=      5-min Rain = 0
KJU1 081942Z 34008KT 06/03 A3022 RMK A01 T00550032  RH  085%=      5-min Rain = 0
KJU1 081943Z 34007KT 06/03 A3022 RMK A01 T00550032  RH  085%=      5-min Rain = 0
KJU1 081944Z 35006KT 06/03 A3022 RMK A01 T00550032  RH  086%=      5-min Rain = 0
KJU1 081945Z 34006KT 06/03 A3022 RMK A01 T00560034  RH  086%=      5-min Rain = 0
KJU1 081946Z 34008KT 06/04 A3022 RMK A01 T00560035  RH  086%=      5-min Rain = 0
KJU1 081947Z 32006KT 06/04 A3022 RMK A01 T00570035  RH  086%=      5-min Rain = 0
KJU1 081948Z 32005KT 06/03 A3022 RMK A01 T00570034  RH  085%=      5-min Rain = 0
KJU1 081949Z 33008KT 06/03 A3022 RMK A01 T00570034  RH  085%=      5-min Rain = 0
KJU1 081950Z 35006KT 06/03 A3022 RMK A01 T00570033  RH  085%=      5-min Rain = 0
KJU1 081951Z 34006KT 06/03 A3022 RMK A01 T00570034  RH  085%=      5-min Rain = 0
KJU1 081952Z 33007KT 06/04 A3022 RMK A01 T00580037  RH  086%=      5-min Rain = 0
KJU1 081953Z 33007KT 06/04 A3022 RMK A01 T00580036  RH  085%=      5-min Rain = 0
KJU1 081954Z 33008KT 06/03 A3022 RMK A01 T00580034  RH  085%=      5-min Rain = 0
KJU1 081955Z 33009KT 06/03 A3022 RMK A01 T00570033  RH  085%=      5-min Rain = 0
KJU1 081956Z 34009KT 06/03 A3022 RMK A01 T00570033  RH  085%=      5-min Rain = 0
KJU1 081957Z 33008KT 06/03 A3022 RMK A01 T00560033  RH  085%=      5-min Rain = 0
KJU1 081958Z 34010KT 06/03 A3022 RMK A01 T00560033  RH  085%=      5-min Rain = 0
KJU1 081959Z 33007KT 06/03 A3022 RMK A01 T00560033  RH  086%=      5-min Rain = 0
KJU1 082000Z 32008KT 06/03 A3022 RMK A01 T00560034  RH  086%=      5-min Rain = 0
KJU1 082001Z 33006KT 06/03 A3022 RMK A01 T00560034  RH  086%=      5-min Rain = 0
KJU1 082002Z 32008KT 06/03 A3022 RMK A01 T00550034  RH  086%=      5-min Rain = 0
KJU1 082003Z 32009KT 06/03 A3022 RMK A01 T00550033  RH  085%=      5-min Rain = 0
KJU1 082004Z 33006KT 06/03 A3022 RMK A01 T00550032  RH  085%=      5-min Rain = 0
KJU1 082005Z 34005KT 06/03 A3022 RMK A01 T00550033  RH  086%=      5-min Rain = 0
KJU1 082006Z 33006KT 06/03 A3022 RMK A01 T00550033  RH  086%=      5-min Rain = 0
KJU1 082007Z 33005KT 06/03 A3022 RMK A01 T00550033  RH  085%=      5-min Rain = 0
KJU1 082008Z 32005KT 06/03 A3022 RMK A01 T00560034  RH  086%=      5-min Rain = 0
KJU1 082009Z 34007KT 06/04 A3022 RMK A01 T00560035  RH  086%=      5-min Rain = 0
KJU1 082010Z 33007KT 06/03 A3022 RMK A01 T00560034  RH  085%=      5-min Rain = 0
KJU1 082011Z 33006KT 06/03 A3022 RMK A01 T00560033  RH  085%=      5-min Rain = 0
KJU1 082012Z 33007KT 06/03 A3022 RMK A01 T00570034  RH  085%=      5-min Rain = 0
KJU1 082013Z 33007KT 06/03 A3022 RMK A01 T00560033  RH  085%=      5-min Rain = 0
KJU1 082014Z 32006KT 06/03 A3022 RMK A01 T00560034  RH  085%=      5-min Rain = 0
KJU1 082015Z 33004KT 06/03 A3022 RMK A01 T00560034  RH  085%=      5-min Rain = 0
KJU1 082016Z 29005KT 06/03 A3022 RMK A01 T00560034  RH  086%=      5-min Rain = 0
KJU1 082017Z 31008KT 06/04 A3022 RMK A01 T00570036  RH  086%=      5-min Rain = 0
KJU1 082018Z 30006KT 06/04 A3022 RMK A01 T00570036  RH  086%=      5-min Rain = 0
KJU1 082019Z 32009KT 06/04 A3022 RMK A01 T00580037  RH  087%=      5-min Rain = 0
KJU1 082020Z 32007KT 06/04 A3022 RMK A01 T00570035  RH  086%=      5-min Rain = 0
KJU1 082021Z 31007G12KT 06/03 A3022 RMK A01 T00560034  RH  086%=      5-min Rain = 0
KJU1 082022Z 32007KT 06/03 A3022 RMK A01 T00560034  RH  086%=      5-min Rain = 0
KJU1 082023Z 33006KT 06/03 A3022 RMK A01 T00560034  RH  086%=      5-min Rain = 0
KJU1 082024Z 33005KT 06/04 A3022 RMK A01 T00560035  RH  086%=      5-min Rain = 0
KJU1 082025Z 32007KT 06/04 A3022 RMK A01 T00560035  RH  086%=      5-min Rain = 0
KJU1 082026Z 33006G12KT 06/04 A3022 RMK A01 T00570035  RH  086%=      5-min Rain = 0
KJU1 082027Z 34007G12KT 06/04 A3022 RMK A01 T00570035  RH  086%=      5-min Rain = 0
KJU1 082028Z 35007KT 06/03 A3022 RMK A01 T00570034  RH  085%=      5-min Rain = 0
KJU1 082029Z 34012KT 06/03 A3022 RMK A01 T00570034  RH  085%=      5-min Rain = 0
KJU1 082030Z 35010KT 06/03 A3022 RMK A01 T00560033  RH  085%=      5-min Rain = 0
KJU1 082031Z 33007G12KT 06/03 A3022 RMK A01 T00560033  RH  085%=      5-min Rain = 0
KJU1 082032Z 33009KT 06/03 A3022 RMK A01 T00560033  RH  085%=      5-min Rain = 0
KJU1 082033Z 34009KT 06/03 A3022 RMK A01 T00560033  RH  085%=      5-min Rain = 0
KJU1 082034Z 34009KT 06/03 A3022 RMK A01 T00560033  RH  085%=      5-min Rain = 0
KJU1 082035Z 33007KT 06/03 A3022 RMK A01 T00560033  RH  085%=      5-min Rain = 0
KJU1 082036Z 34008KT 06/03 A3022 RMK A01 T00560034  RH  085%=      5-min Rain = 0
KJU1 082037Z 34005KT 06/03 A3022 RMK A01 T00560034  RH  085%=      5-min Rain = 0
KJU1 082038Z 34006G11KT 06/04 A3022 RMK A01 T00560035  RH  086%=      5-min Rain = 0
KJU1 082039Z 34011KT 06/04 A3022 RMK A01 T00570035  RH  086%=      5-min Rain = 0
KJU1 082040Z 34009KT 06/03 A3022 RMK A01 T00570034  RH  085%=      5-min Rain = 0
KJU1 082041Z 33007KT 06/03 A3022 RMK A01 T00560033  RH  085%=      5-min Rain = 0
KJU1 082042Z 33010KT 06/03 A3022 RMK A01 T00560034  RH  085%=      5-min Rain = 0
KJU1 082043Z 33010KT 06/03 A3022 RMK A01 T00560033  RH  085%=      5-min Rain = 0
KJU1 082044Z 32009KT 06/03 A3022 RMK A01 T00560032  RH  085%=      5-min Rain = 0
KJU1 082045Z 33007KT 06/03 A3022 RMK A01 T00560033  RH  085%=      5-min Rain = 0
KJU1 082046Z 33009KT 06/03 A3022 RMK A01 T00560033  RH  085%=      5-min Rain = 0
KJU1 082047Z 34008G13KT 06/03 A3022 RMK A01 T00560033  RH  085%=      5-min Rain = 0
KJU1 082048Z 32007KT 06/03 A3022 RMK A01 T00560033  RH  085%=      5-min Rain = 0
KJU1 082049Z 32006KT 06/03 A3022 RMK A01 T00560034  RH  085%=      5-min Rain = 0
KJU1 082050Z 32008KT 06/03 A3022 RMK A01 T00570034  RH  085%=      5-min Rain = 0
KJU1 082051Z 32007KT 06/03 A3022 RMK A01 T00570033  RH  085%=      5-min Rain = 0
KJU1 082052Z 32008KT 06/03 A3022 RMK A01 T00570034  RH  085%=      5-min Rain = 0
KJU1 082053Z 33006KT 06/03 A3022 RMK A01 T00560033  RH  085%=      5-min Rain = 0
KJU1 082054Z 33007KT 06/03 A3022 RMK A01 T00560034  RH  085%=      5-min Rain = 0
KJU1 082055Z 32007KT 06/03 A3022 RMK A01 T00570033  RH  085%=      5-min Rain = 0
KJU1 082056Z 33006KT 06/03 A3022 RMK A01 T00560034  RH  085%=      5-min Rain = 0
KJU1 082057Z 34005KT 06/03 A3023 RMK A01 T00570034  RH  085%=      5-min Rain = 0
KJU1 082058Z 34004KT 06/04 A3023 RMK A01 T00570035  RH  086%=      5-min Rain = 0
KJU1 082059Z 35006KT 06/04 A3022 RMK A01 T00580036  RH  086%=      5-min Rain = 0
KJU1 082100Z 33006KT 06/04 A3022 RMK A01 T00580036  RH  086%=      5-min Rain = 0
KJU1 082101Z 32003KT 06/04 A3022 RMK A01 T00590037  RH  086%=      5-min Rain = 0
KJU1 082102Z 34007KT 06/04 A3023 RMK A01 T00590037  RH  086%=      5-min Rain = 0
KJU1 082103Z 33007G12KT 06/04 A3023 RMK A01 T00590036  RH  085%=      5-min Rain = 0
KJU1 082104Z 34008G13KT 06/04 A3023 RMK A01 T00580035  RH  085%=      5-min Rain = 0
KJU1 082105Z 34007KT 06/03 A3023 RMK A01 T00580034  RH  085%=      5-min Rain = 0
KJU1 082106Z 33010G15KT 06/04 A3023 RMK A01 T00580035  RH  085%=      5-min Rain = 0
KJU1 082107Z 33009KT 06/03 A3023 RMK A01 T00570034  RH  085%=      5-min Rain = 0
KJU1 082108Z 34010KT 06/03 A3023 RMK A01 T00570034  RH  085%=      5-min Rain = 0
KJU1 082109Z 34010KT 06/03 A3023 RMK A01 T00570034  RH  085%=      5-min Rain = 0
KJU1 082110Z 34008G13KT 06/03 A3023 RMK A01 T00570034  RH  085%=      5-min Rain = 0
KJU1 082111Z 34008KT 06/03 A3023 RMK A01 T00560034  RH  085%=      5-min Rain = 0
KJU1 082112Z 34009KT 06/03 A3022 RMK A01 T00570034  RH  086%=      5-min Rain = 0
KJU1 082113Z 32010KT 06/03 A3022 RMK A01 T00560034  RH  086%=      5-min Rain = 0
KJU1 082114Z 33007KT 06/03 A3022 RMK A01 T00560034  RH  086%=      5-min Rain = 0
KJU1 082115Z 34007KT 06/04 A3022 RMK A01 T00560035  RH  086%=      5-min Rain = 0
KJU1 082116Z 34010KT 06/04 A3022 RMK A01 T00560035  RH  086%=      5-min Rain = 0
KJU1 082117Z 33009G14KT 06/04 A3022 RMK A01 T00560035  RH  086%=      5-min Rain = 0
KJU1 082118Z 33008KT 06/04 A3022 RMK A01 T00560035  RH  086%=      5-min Rain = 0
KJU1 082119Z 34007KT 06/04 A3022 RMK A01 T00560035  RH  086%=      5-min Rain = 0
KJU1 082120Z 34009G14KT 06/04 A3022 RMK A01 T00560035  RH  086%=      5-min Rain = 0
KJU1 082121Z 33007KT 06/04 A3022 RMK A01 T00560035  RH  086%=      5-min Rain = 0
KJU1 082122Z 33006KT 06/04 A3022 RMK A01 T00560035  RH  086%=      5-min Rain = 0
KJU1 082123Z 34005KT 06/04 A3022 RMK A01 T00570036  RH  086%=      5-min Rain = 0
KJU1 082124Z 35005KT 06/04 A3022 RMK A01 T00570035  RH  086%=      5-min Rain = 0
KJU1 082125Z 34005KT 06/04 A3022 RMK A01 T00570036  RH  086%=      5-min Rain = 0
KJU1 082126Z 34008KT 06/04 A3022 RMK A01 T00580036  RH  086%=      5-min Rain = 0
KJU1 082127Z 33008KT 06/04 A3022 RMK A01 T00580036  RH  086%=      5-min Rain = 0
KJU1 082128Z 32006KT 06/04 A3023 RMK A01 T00580035  RH  086%=      5-min Rain = 0
KJU1 082129Z 34006KT 06/04 A3023 RMK A01 T00570035  RH  086%=      5-min Rain = 0
KJU1 082130Z 34008KT 06/04 A3022 RMK A01 T00570035  RH  086%=      5-min Rain = 0
KJU1 082131Z 34010KT 06/04 A3022 RMK A01 T00570035  RH  086%=      5-min Rain = 0
KJU1 082132Z 34010KT 06/04 A3022 RMK A01 T00570035  RH  086%=      5-min Rain = 0
KJU1 082133Z 35009KT 06/04 A3022 RMK A01 T00570035  RH  086%=      5-min Rain = 0
KJU1 082134Z 33008KT 06/04 A3022 RMK A01 T00570035  RH  086%=      5-min Rain = 0
KJU1 082135Z 34009KT 06/04 A3022 RMK A01 T00560035  RH  086%=      5-min Rain = 0
KJU1 082136Z 35007KT 06/04 A3022 RMK A01 T00560035  RH  086%=      5-min Rain = 0
KJU1 082137Z 34007KT 06/04 A3022 RMK A01 T00560035  RH  086%=      5-min Rain = 0
KJU1 082138Z 34008KT 06/04 A3022 RMK A01 T00570036  RH  087%=      5-min Rain = 0
KJU1 082139Z 32006KT 06/04 A3022 RMK A01 T00570036  RH  086%=      5-min Rain = 0
KJU1 082140Z 33006KT 06/04 A3022 RMK A01 T00570036  RH  086%=      5-min Rain = 0
KJU1 082141Z 34008KT 06/04 A3022 RMK A01 T00570036  RH  086%=      5-min Rain = 0
KJU1 082142Z 35005KT 06/04 A3022 RMK A01 T00570036  RH  086%=      5-min Rain = 0
KJU1 082143Z 34006KT 06/04 A3022 RMK A01 T00570036  RH  086%=      5-min Rain = 0
KJU1 082144Z 34008KT 06/04 A3022 RMK A01 T00580037  RH  086%=      5-min Rain = 0
KJU1 082145Z 33008KT 06/04 A3022 RMK A01 T00580036  RH  086%=      5-min Rain = 0
KJU1 082146Z 33008KT 06/04 A3023 RMK A01 T00580036  RH  086%=      5-min Rain = 0
KJU1 082147Z 33008KT 06/04 A3023 RMK A01 T00580036  RH  086%=      5-min Rain = 0
KJU1 082148Z 33011KT 06/04 A3023 RMK A01 T00570035  RH  086%=      5-min Rain = 0
KJU1 082149Z 33006KT 06/04 A3023 RMK A01 T00570035  RH  086%=      5-min Rain = 0
KJU1 082150Z 33010KT 06/04 A3023 RMK A01 T00570035  RH  086%=      5-min Rain = 0
KJU1 082151Z 31007KT 06/03 A3023 RMK A01 T00560034  RH  086%=      5-min Rain = 0
KJU1 082152Z 32006KT 06/04 A3023 RMK A01 T00560035  RH  086%=      5-min Rain = 0
KJU1 082153Z 35008KT 06/04 A3023 RMK A01 T00560035  RH  086%=      5-min Rain = 0
KJU1 082154Z 34006KT 06/04 A3023 RMK A01 T00560035  RH  086%=      5-min Rain = 0
KJU1 082155Z 33006KT 06/04 A3023 RMK A01 T00560036  RH  086%=      5-min Rain = 0
KJU1 082156Z 33006KT 06/04 A3023 RMK A01 T00560036  RH  087%=      5-min Rain = 0
KJU1 082157Z 33006KT 06/04 A3023 RMK A01 T00560035  RH  086%=      5-min Rain = 0
KJU1 082158Z 33009KT 06/04 A3023 RMK A01 T00560035  RH  086%=      5-min Rain = 0
KJU1 082159Z 34007KT 06/03 A3023 RMK A01 T00560034  RH  086%=      5-min Rain = 0
KJU1 082200Z 35010KT 06/03 A3023 RMK A01 T00550034  RH  086%=      5-min Rain = 0
KJU1 082201Z 33009KT 06/03 A3023 RMK A01 T00550034  RH  086%=      5-min Rain = 0
KJU1 082202Z 34010KT 06/03 A3023 RMK A01 T00550034  RH  086%=      5-min Rain = 0
KJU1 082203Z 35010G15KT 06/03 A3023 RMK A01 T00550033  RH  086%=      5-min Rain = 0
KJU1 082204Z 35009KT 06/03 A3023 RMK A01 T00550033  RH  086%=      5-min Rain = 0
KJU1 082205Z 35008KT 06/03 A3023 RMK A01 T00550033  RH  086%=      5-min Rain = 0
KJU1 082206Z 35007KT 06/03 A3023 RMK A01 T00550034  RH  086%=      5-min Rain = 0
KJU1 082207Z 34007KT 06/03 A3023 RMK A01 T00550034  RH  086%=      5-min Rain = 0
KJU1 082208Z 34008KT 06/03 A3023 RMK A01 T00550034  RH  086%=      5-min Rain = 0
KJU1 082209Z 34008KT 06/03 A3023 RMK A01 T00550034  RH  086%=      5-min Rain = 0
KJU1 082210Z 33011KT 06/03 A3023 RMK A01 T00550033  RH  086%=      5-min Rain = 0
KJU1 082211Z 33009KT 06/03 A3023 RMK A01 T00550033  RH  086%=      5-min Rain = 0
KJU1 082212Z 32007KT 06/03 A3023 RMK A01 T00550033  RH  086%=      5-min Rain = 0
KJU1 082213Z 31008KT 06/03 A3023 RMK A01 T00550033  RH  086%=      5-min Rain = 0
KJU1 082214Z 31009KT 06/03 A3023 RMK A01 T00550034  RH  086%=      5-min Rain = 0
KJU1 082215Z 34005G10KT 06/03 A3024 RMK A01 T00550034  RH  086%=      5-min Rain = 0
KJU1 082216Z 34008KT 06/03 A3024 RMK A01 T00550034  RH  086%=      5-min Rain = 0
KJU1 082217Z 34008KT 06/03 A3024 RMK A01 T00550033  RH  086%=      5-min Rain = 0
KJU1 082218Z 32006KT 06/03 A3024 RMK A01 T00550033  RH  085%=      5-min Rain = 0
KJU1 082219Z 34007KT 06/03 A3024 RMK A01 T00550033  RH  086%=      5-min Rain = 0
KJU1 082220Z 34007KT 06/03 A3024 RMK A01 T00550033  RH  086%=      5-min Rain = 0
KJU1 082221Z 34007KT 06/03 A3024 RMK A01 T00560033  RH  085%=      5-min Rain = 0
KJU1 082222Z 33007KT 06/03 A3024 RMK A01 T00550033  RH  085%=      5-min Rain = 0
KJU1 082223Z 33007KT 06/03 A3024 RMK A01 T00550032  RH  085%=      5-min Rain = 0
KJU1 082224Z 33007KT 06/03 A3024 RMK A01 T00550032  RH  085%=      5-min Rain = 0
KJU1 082225Z 34009KT 06/03 A3024 RMK A01 T00550032  RH  085%=      5-min Rain = 0
KJU1 082226Z 34009KT 06/03 A3024 RMK A01 T00550032  RH  085%=      5-min Rain = 0
KJU1 082227Z 34007KT 06/03 A3024 RMK A01 T00550032  RH  085%=      5-min Rain = 0
KJU1 082228Z 33006KT 06/03 A3024 RMK A01 T00550033  RH  085%=      5-min Rain = 0
KJU1 082229Z 34008G13KT 06/03 A3024 RMK A01 T00550033  RH  086%=      5-min Rain = 0
KJU1 082230Z 31010KT 06/03 A3024 RMK A01 T00550033  RH  086%=      5-min Rain = 0
KJU1 082231Z 33007KT 05/03 A3024 RMK A01 T00540032  RH  086%=      5-min Rain = 0
KJU1 082232Z 33009KT 06/03 A3024 RMK A01 T00550033  RH  086%=      5-min Rain = 0
KJU1 082233Z 33008KT 06/03 A3024 RMK A01 T00550033  RH  086%=      5-min Rain = 0
KJU1 082234Z 33005KT 06/03 A3024 RMK A01 T00550033  RH  086%=      5-min Rain = 0
KJU1 082235Z 34007G14KT 06/03 A3024 RMK A01 T00550034  RH  086%=      5-min Rain = 0
KJU1 082236Z 33008KT 06/03 A3024 RMK A01 T00550034  RH  086%=      5-min Rain = 0
KJU1 082237Z 33009KT 06/03 A3024 RMK A01 T00550033  RH  086%=      5-min Rain = 0
KJU1 082238Z 34008KT 05/03 A3024 RMK A01 T00540033  RH  086%=      5-min Rain = 0
KJU1 082239Z 34011KT 05/03 A3024 RMK A01 T00540032  RH  086%=      5-min Rain = 0
KJU1 082240Z 34009KT 05/03 A3024 RMK A01 T00540032  RH  086%=      5-min Rain = 0
KJU1 082241Z 34009G14KT 05/03 A3024 RMK A01 T00540032  RH  085%=      5-min Rain = 0
KJU1 082242Z 34009G14KT 05/03 A3024 RMK A01 T00540031  RH  085%=      5-min Rain = 0
KJU1 082243Z 34010KT 05/03 A3024 RMK A01 T00540031  RH  085%=      5-min Rain = 0
KJU1 082244Z 34007KT 05/03 A3024 RMK A01 T00540031  RH  085%=      5-min Rain = 0
KJU1 082245Z 31007KT 05/03 A3024 RMK A01 T00540031  RH  085%=      5-min Rain = 0
KJU1 082246Z 31008KT 05/03 A3024 RMK A01 T00540032  RH  086%=      5-min Rain = 0
KJU1 082247Z 33007KT 05/03 A3024 RMK A01 T00540032  RH  086%=      5-min Rain = 0
KJU1 082248Z 32006KT 05/03 A3024 RMK A01 T00530032  RH  086%=      5-min Rain = 0
KJU1 082249Z 31008KT 05/03 A3024 RMK A01 T00530032  RH  087%=      5-min Rain = 0
KJU1 082250Z 32007KT 05/03 A3024 RMK A01 T00530032  RH  087%=      5-min Rain = 0
KJU1 082251Z 33007KT 05/03 A3024 RMK A01 T00530033  RH  087%=      5-min Rain = 0
KJU1 082252Z 33008KT 05/03 A3024 RMK A01 T00520032  RH  087%=      5-min Rain = 0
KJU1 082253Z 33008KT 05/03 A3024 RMK A01 T00520032  RH  087%=      5-min Rain = 0
KJU1 082254Z 32009KT 05/03 A3024 RMK A01 T00520032  RH  087%=      5-min Rain = 0
KJU1 082255Z 34006KT 05/03 A3024 RMK A01 T00520032  RH  087%=      5-min Rain = 0
KJU1 082256Z 34008KT 05/03 A3024 RMK A01 T00520032  RH  087%=      5-min Rain = 0
KJU1 082257Z 34007KT 05/03 A3024 RMK A01 T00520032  RH  087%=      5-min Rain = 0
KJU1 082258Z 33006KT 05/03 A3024 RMK A01 T00520032  RH  087%=      5-min Rain = 0
KJU1 082259Z 34005KT 05/03 A3024 RMK A01 T00520032  RH  087%=      5-min Rain = 0
KJU1 082300Z 33006KT 05/03 A3024 RMK A01 T00520032  RH  087%=      5-min Rain = 0
KJU1 082301Z 33007KT 05/03 A3024 RMK A01 T00520032  RH  087%=      5-min Rain = 0
KJU1 082302Z 34009KT 05/03 A3024 RMK A01 T00520031  RH  086%=      5-min Rain = 0
KJU1 082303Z 33007G14KT 05/03 A3024 RMK A01 T00520031  RH  086%=      5-min Rain = 0
KJU1 082304Z 34011KT 05/03 A3024 RMK A01 T00520030  RH  086%=      5-min Rain = 0
KJU1 082305Z 34011G16KT 05/03 A3024 RMK A01 T00520030  RH  085%=      5-min Rain = 0
KJU1 082306Z 34009KT 05/03 A3024 RMK A01 T00520029  RH  085%=      5-min Rain = 0
KJU1 082307Z 34009KT 05/03 A3024 RMK A01 T00530030  RH  085%=      5-min Rain = 0
KJU1 082308Z 35006KT 05/03 A3025 RMK A01 T00530029  RH  085%=      5-min Rain = 0
KJU1 082309Z 34010KT 05/03 A3025 RMK A01 T00530029  RH  085%=      5-min Rain = 0
KJU1 082310Z 34010KT 05/03 A3025 RMK A01 T00530029  RH  085%=      5-min Rain = 0
KJU1 082311Z 34009KT 05/03 A3025 RMK A01 T00530029  RH  084%=      5-min Rain = 0
KJU1 082312Z 33008KT 05/03 A3025 RMK A01 T00530029  RH  085%=      5-min Rain = 0
KJU1 082313Z 34009KT 05/03 A3025 RMK A01 T00530029  RH  085%=      5-min Rain = 0
KJU1 082314Z 34008KT 05/03 A3025 RMK A01 T00530029  RH  085%=      5-min Rain = 0
KJU1 082315Z 33007KT 05/03 A3025 RMK A01 T00530029  RH  085%=      5-min Rain = 0
KJU1 082316Z 34008KT 05/03 A3025 RMK A01 T00520029  RH  085%=      5-min Rain = 0
KJU1 082317Z 35009KT 05/03 A3025 RMK A01 T00520029  RH  085%=      5-min Rain = 0
KJU1 082318Z 34007KT 05/03 A3025 RMK A01 T00520029  RH  085%=      5-min Rain = 0
KJU1 082319Z 34006G11KT 05/03 A3025 RMK A01 T00530029  RH  085%=      5-min Rain = 0
KJU1 082320Z 33008KT 05/03 A3025 RMK A01 T00520029  RH  085%=      5-min Rain = 0
KJU1 082321Z 34008KT 05/03 A3025 RMK A01 T00520030  RH  085%=      5-min Rain = 0
KJU1 082322Z 33005KT 05/03 A3025 RMK A01 T00520029  RH  085%=      5-min Rain = 0
KJU1 082323Z 33005KT 05/03 A3025 RMK A01 T00520030  RH  086%=      5-min Rain = 0
KJU1 082324Z 34007KT 05/03 A3025 RMK A01 T00520030  RH  086%=      5-min Rain = 0
KJU1 082325Z 33009KT 05/03 A3025 RMK A01 T00520030  RH  086%=      5-min Rain = 0
KJU1 082326Z 33007KT 05/03 A3025 RMK A01 T00510030  RH  086%=      5-min Rain = 0
KJU1 082327Z 33008KT 05/03 A3025 RMK A01 T00510030  RH  086%=      5-min Rain = 0
KJU1 082328Z 32008KT 05/03 A3025 RMK A01 T00510030  RH  086%=      5-min Rain = 0
KJU1 082329Z 33009KT 05/03 A3026 RMK A01 T00510030  RH  086%=      5-min Rain = 0
KJU1 082330Z 33006KT 05/03 A3026 RMK A01 T00510029  RH  086%=      5-min Rain = 0
KJU1 082331Z 34008KT 05/03 A3026 RMK A01 T00510030  RH  086%=      5-min Rain = 0
KJU1 082332Z 33005G10KT 05/03 A3026 RMK A01 T00510030  RH  086%=      5-min Rain = 0
KJU1 082333Z 32009KT 05/03 A3026 RMK A01 T00510030  RH  086%=      5-min Rain = 0
KJU1 082334Z 32009KT 05/03 A3026 RMK A01 T00510028  RH  086%=      5-min Rain = 0
KJU1 082335Z 33007KT 05/03 A3026 RMK A01 T00500028  RH  085%=      5-min Rain = 0
KJU1 082336Z 34007KT 05/03 A3026 RMK A01 T00510028  RH  085%=      5-min Rain = 0
KJU1 082337Z 34007KT 05/03 A3026 RMK A01 T00510028  RH  085%=      5-min Rain = 0
KJU1 082338Z 33008KT 05/03 A3026 RMK A01 T00500028  RH  086%=      5-min Rain = 0
KJU1 082339Z 33010KT 05/03 A3026 RMK A01 T00500028  RH  085%=      5-min Rain = 0
KJU1 082340Z 33008KT 05/03 A3026 RMK A01 T00500028  RH  085%=      5-min Rain = 0
KJU1 082341Z 33007KT 05/03 A3026 RMK A01 T00500028  RH  085%=      5-min Rain = 0
KJU1 082342Z 33007G12KT 05/03 A3026 RMK A01 T00500028  RH  085%=      5-min Rain = 0
KJU1 082343Z 33010KT 05/03 A3026 RMK A01 T00500028  RH  085%=      5-min Rain = 0
KJU1 082344Z 33010KT 05/03 A3026 RMK A01 T00500026  RH  085%=      5-min Rain = 0
KJU1 082345Z 33008KT 05/03 A3026 RMK A01 T00500026  RH  084%=      5-min Rain = 0
KJU1 082346Z 32010G18KT 05/03 A3026 RMK A01 T00500026  RH  084%=      5-min Rain = 0
KJU1 082347Z 32010G15KT 05/03 A3026 RMK A01 T00500025  RH  084%=      5-min Rain = 0
KJU1 082348Z 33010G15KT 05/03 A3026 RMK A01 T00500025  RH  084%=      5-min Rain = 0
KJU1 082349Z 33008KT 05/03 A3027 RMK A01 T00500025  RH  084%=      5-min Rain = 0
KJU1 082350Z 34008KT 05/02 A3027 RMK A01 T00500024  RH  084%=      5-min Rain = 0
KJU1 082351Z 33009KT 05/02 A3027 RMK A01 T00500024  RH  084%=      5-min Rain = 0
KJU1 082352Z 32009KT 05/02 A3027 RMK A01 T00500024  RH  084%=      5-min Rain = 0
KJU1 082353Z 33008KT 05/02 A3027 RMK A01 T00490024  RH  084%=      5-min Rain = 0
KJU1 082354Z 35009KT 05/02 A3027 RMK A01 T00500024  RH  084%=      5-min Rain = 0
KJU1 082355Z 34008G13KT 05/02 A3027 RMK A01 T00490024  RH  084%=      5-min Rain = 0
KJU1 082356Z 34009G14KT 05/02 A3027 RMK A01 T00500024  RH  084%=      5-min Rain = 0
KJU1 082357Z 35011KT 05/02 A3027 RMK A01 T00500024  RH  083%=      5-min Rain = 0
KJU1 082358Z 35012KT 05/02 A3027 RMK A01 T00490023  RH  083%=      5-min Rain = 0
KJU1 082359Z 34009KT 05/02 A3027 RMK A01 T00500023  RH  083%=      5-min Rain = 0
KJU1 090000Z 34006KT 05/02 A3027 RMK A01 T00490023  RH  083%=      5-min Rain = 0
KJU1 090001Z 34008KT 05/02 A3027 RMK A01 T00500023  RH  083%=      5-min Rain = 0
KJU1 090002Z 33009G14KT 05/02 A3027 RMK A01 T00490023  RH  083%=      5-min Rain = 0
KJU1 090003Z 34008KT 05/02 A3027 RMK A01 T00490023  RH  083%=      5-min Rain = 0
KJU1 090004Z 33008KT 05/02 A3027 RMK A01 T00490023  RH  083%=      5-min Rain = 0
KJU1 090005Z 32009G16KT 05/02 A3027 RMK A01 T00490022  RH  083%=      5-min Rain = 0
KJU1 090006Z 32008KT 05/02 A3027 RMK A01 T00490022  RH  083%=      5-min Rain = 0
KJU1 090007Z 33012KT 05/02 A3027 RMK A01 T00490021  RH  082%=      5-min Rain = 0
KJU1 090008Z 34010KT 05/02 A3027 RMK A01 T00490021  RH  082%=      5-min Rain = 0
KJU1 090009Z 34011KT 05/02 A3027 RMK A01 T00490021  RH  082%=      5-min Rain = 0
KJU1 090010Z 33012KT 05/02 A3027 RMK A01 T00490021  RH  083%=      5-min Rain = 0
KJU1 090011Z 34008KT 05/02 A3027 RMK A01 T00480021  RH  083%=      5-min Rain = 0
KJU1 090012Z 35009KT 05/02 A3027 RMK A01 T00490021  RH  082%=      5-min Rain = 0
KJU1 090013Z 35009KT 05/02 A3027 RMK A01 T00480021  RH  082%=      5-min Rain = 0
KJU1 090014Z 34006KT 05/02 A3027 RMK A01 T00480021  RH  083%=      5-min Rain = 0
KJU1 090015Z 33011KT 05/02 A3027 RMK A01 T00480021  RH  083%=      5-min Rain = 0
KJU1 090016Z 34009KT 05/02 A3027 RMK A01 T00480021  RH  082%=      5-min Rain = 0
KJU1 090017Z 34010KT 05/02 A3027 RMK A01 T00480021  RH  082%=      5-min Rain = 0
KJU1 090018Z 34008KT 05/02 A3027 RMK A01 T00480020  RH  082%=      5-min Rain = 0
KJU1 090019Z 34008KT 05/02 A3027 RMK A01 T00480020  RH  082%=      5-min Rain = 0
KJU1 090020Z 34010KT 05/02 A3027 RMK A01 T00480020  RH  082%=      5-min Rain = 0
KJU1 090021Z 34006KT 05/02 A3027 RMK A01 T00480020  RH  082%=      5-min Rain = 0
KJU1 090022Z 33006KT 05/02 A3027 RMK A01 T00480021  RH  082%=      5-min Rain = 0
KJU1 090023Z 35007KT 05/02 A3027 RMK A01 T00480020  RH  082%=      5-min Rain = 0
KJU1 090024Z 34006KT 05/02 A3027 RMK A01 T00480020  RH  082%=      5-min Rain = 0
KJU1 090025Z 34006KT 05/02 A3027 RMK A01 T00480021  RH  083%=      5-min Rain = 0
KJU1 090026Z 33007KT 05/02 A3027 RMK A01 T00480021  RH  083%=      5-min Rain = 0
KJU1 090027Z 33008KT 05/02 A3027 RMK A01 T00480021  RH  083%=      5-min Rain = 0
KJU1 090028Z 34006KT 05/02 A3028 RMK A01 T00480021  RH  083%=      5-min Rain = 0
KJU1 090029Z 35007KT 05/02 A3028 RMK A01 T00480021  RH  083%=      5-min Rain = 0
KJU1 090030Z 34006KT 05/02 A3028 RMK A01 T00480021  RH  083%=      5-min Rain = 0
KJU1 090031Z 34006KT 05/02 A3028 RMK A01 T00480022  RH  083%=      5-min Rain = 0
KJU1 090032Z 34005KT 05/02 A3028 RMK A01 T00480022  RH  083%=      5-min Rain = 0
KJU1 090033Z 33006KT 05/02 A3028 RMK A01 T00480022  RH  083%=      5-min Rain = 0
KJU1 090034Z 33004KT 05/02 A3028 RMK A01 T00480022  RH  083%=      5-min Rain = 0
KJU1 090035Z 34007KT 05/02 A3028 RMK A01 T00480022  RH  083%=      5-min Rain = 0
KJU1 090036Z 34007KT 05/02 A3028 RMK A01 T00480022  RH  083%=      5-min Rain = 0
KJU1 090037Z 33007KT 05/02 A3028 RMK A01 T00480022  RH  084%=      5-min Rain = 0
KJU1 090038Z 34005KT 05/02 A3028 RMK A01 T00480022  RH  084%=      5-min Rain = 0
KJU1 090039Z 33005KT 05/02 A3028 RMK A01 T00480023  RH  084%=      5-min Rain = 0
KJU1 090040Z 32006KT 05/02 A3028 RMK A01 T00480023  RH  084%=      5-min Rain = 0
KJU1 090041Z 33004KT 05/02 A3028 RMK A01 T00480023  RH  084%=      5-min Rain = 0
KJU1 090042Z 34005KT 05/02 A3028 RMK A01 T00480023  RH  084%=      5-min Rain = 0
KJU1 090043Z 33008KT 05/02 A3028 RMK A01 T00480023  RH  084%=      5-min Rain = 0
KJU1 090044Z 33007KT 05/02 A3028 RMK A01 T00480022  RH  084%=      5-min Rain = 0
KJU1 090045Z 35006KT 05/02 A3028 RMK A01 T00480022  RH  084%=      5-min Rain = 0
KJU1 090046Z 34007KT 05/02 A3028 RMK A01 T00480022  RH  083%=      5-min Rain = 0
KJU1 090047Z 34008KT 05/02 A3028 RMK A01 T00480022  RH  083%=      5-min Rain = 0
KJU1 090048Z 32006KT 05/02 A3028 RMK A01 T00470021  RH  083%=      5-min Rain = 0
KJU1 090049Z 33005KT 05/02 A3028 RMK A01 T00470021  RH  083%=      5-min Rain = 0
KJU1 090050Z 34007KT 05/02 A3028 RMK A01 T00470022  RH  083%=      5-min Rain = 0
KJU1 090051Z 33005KT 05/02 A3028 RMK A01 T00470022  RH  083%=      5-min Rain = 0
KJU1 090052Z 33003KT 05/02 A3028 RMK A01 T00470022  RH  084%=      5-min Rain = 0
KJU1 090053Z 33005KT 05/02 A3028 RMK A01 T00470022  RH  084%=      5-min Rain = 0
KJU1 090054Z 34005KT 05/02 A3028 RMK A01 T00470022  RH  084%=      5-min Rain = 0
KJU1 090055Z 35006KT 05/02 A3028 RMK A01 T00470022  RH  084%=      5-min Rain = 0
KJU1 090056Z 34005KT 05/02 A3028 RMK A01 T00470022  RH  084%=      5-min Rain = 0
KJU1 090057Z 33005KT 05/02 A3028 RMK A01 T00470022  RH  084%=      5-min Rain = 0
KJU1 090058Z 34006KT 05/02 A3028 RMK A01 T00470022  RH  084%=      5-min Rain = 0
KJU1 090059Z 33006KT 05/02 A3028 RMK A01 T00470022  RH  084%=      5-min Rain = 0
KJU1 090100Z 33006KT 05/02 A3028 RMK A01 T00470022  RH  084%=      5-min Rain = 0
KJU1 090101Z 35006KT 05/02 A3028 RMK A01 T00470022  RH  084%=      5-min Rain = 0
KJU1 090102Z 34005KT 05/02 A3028 RMK A01 T00470021  RH  084%=      5-min Rain = 0
KJU1 090103Z 34005KT 05/02 A3028 RMK A01 T00460021  RH  084%=      5-min Rain = 0
KJU1 090104Z 34004KT 05/02 A3028 RMK A01 T00460021  RH  084%=      5-min Rain = 0
KJU1 090105Z 33003KT 05/02 A3028 RMK A01 T00460021  RH  084%=      5-min Rain = 0
KJU1 090106Z 35003KT 05/02 A3028 RMK A01 T00460021  RH  084%=      5-min Rain = 0
KJU1 090107Z 35005KT 05/02 A3028 RMK A01 T00460022  RH  084%=      5-min Rain = 0
KJU1 090108Z 34007KT 05/02 A3028 RMK A01 T00470022  RH  084%=      5-min Rain = 0
KJU1 090109Z 34005KT 05/02 A3028 RMK A01 T00460022  RH  084%=      5-min Rain = 0
KJU1 090110Z 35006KT 05/02 A3028 RMK A01 T00460022  RH  084%=      5-min Rain = 0
KJU1 090111Z 35006KT 05/02 A3028 RMK A01 T00460022  RH  084%=      5-min Rain = 0
KJU1 090112Z 34006KT 05/02 A3028 RMK A01 T00460022  RH  084%=      5-min Rain = 0
KJU1 090113Z 35005KT 05/02 A3028 RMK A01 T00460022  RH  084%=      5-min Rain = 0
KJU1 090114Z 35005KT 05/02 A3028 RMK A01 T00460022  RH  085%=      5-min Rain = 0
KJU1 090115Z 00004KT 05/02 A3028 RMK A01 T00460022  RH  085%=      5-min Rain = 0
KJU1 090116Z 35005KT 05/02 A3028 RMK A01 T00460022  RH  085%=      5-min Rain = 0
KJU1 090117Z 34004KT 05/02 A3028 RMK A01 T00460022  RH  085%=      5-min Rain = 0
KJU1 090118Z 34004KT 05/02 A3028 RMK A01 T00460023  RH  085%=      5-min Rain = 0
KJU1 090119Z 36005KT 05/02 A3028 RMK A01 T00460023  RH  085%=      5-min Rain = 0
KJU1 090120Z 35005KT 05/02 A3028 RMK A01 T00460022  RH  085%=      5-min Rain = 0
KJU1 090121Z 35005KT 05/02 A3028 RMK A01 T00460022  RH  085%=      5-min Rain = 0
KJU1 090122Z 35005KT 05/02 A3028 RMK A01 T00460022  RH  085%=      5-min Rain = 0
KJU1 090123Z 35005KT 05/02 A3028 RMK A01 T00460023  RH  085%=      5-min Rain = 0
KJU1 090124Z 35006KT 05/02 A3028 RMK A01 T00460022  RH  085%=      5-min Rain = 0
KJU1 090125Z 33006KT 05/02 A3028 RMK A01 T00460023  RH  085%=      5-min Rain = 0
KJU1 090126Z 34005KT 05/02 A3029 RMK A01 T00460023  RH  085%=      5-min Rain = 0
KJU1 090127Z 34004KT 05/02 A3029 RMK A01 T00460022  RH  085%=      5-min Rain = 0
KJU1 090128Z 33004KT 05/02 A3029 RMK A01 T00450023  RH  085%=      5-min Rain = 0
KJU1 090129Z 33003KT 05/02 A3029 RMK A01 T00450023  RH  085%=      5-min Rain = 0
KJU1 090130Z 33005KT 05/02 A3029 RMK A01 T00450023  RH  085%=      5-min Rain = 0
KJU1 090131Z 34005KT 05/02 A3029 RMK A01 T00450023  RH  086%=      5-min Rain = 0
KJU1 090132Z 32003KT 05/02 A3029 RMK A01 T00450023  RH  086%=      5-min Rain = 0
KJU1 090133Z 33003KT 05/02 A3029 RMK A01 T00450024  RH  086%=      5-min Rain = 0
KJU1 090134Z 33002KT 05/02 A3029 RMK A01 T00450024  RH  086%=      5-min Rain = 0
KJU1 090135Z 33004KT 05/02 A3029 RMK A01 T00450024  RH  086%=      5-min Rain = 0
KJU1 090136Z 32003KT 05/02 A3029 RMK A01 T00450024  RH  086%=      5-min Rain = 0
KJU1 090137Z 31004KT 05/02 A3029 RMK A01 T00450024  RH  086%=      5-min Rain = 0
KJU1 090138Z 32005KT 05/02 A3029 RMK A01 T00450024  RH  086%=      5-min Rain = 0
KJU1 090139Z 32003KT 05/02 A3029 RMK A01 T00450024  RH  086%=      5-min Rain = 0
KJU1 090140Z 32003KT 05/03 A3029 RMK A01 T00450025  RH  087%=      5-min Rain = 0
KJU1 090141Z 34003KT 05/03 A3029 RMK A01 T00450025  RH  087%=      5-min Rain = 0
KJU1 090142Z 32005KT 05/03 A3029 RMK A01 T00450025  RH  086%=      5-min Rain = 0
KJU1 090143Z 33005KT 05/02 A3029 RMK A01 T00450024  RH  086%=      5-min Rain = 0
KJU1 090144Z 32005KT 05/02 A3029 RMK A01 T00450024  RH  086%=      5-min Rain = 0
KJU1 090145Z 32004KT 05/02 A3029 RMK A01 T00450024  RH  086%=      5-min Rain = 0
KJU1 090146Z 33004KT 05/02 A3029 RMK A01 T00450024  RH  086%=      5-min Rain = 0
KJU1 090147Z 32003KT 05/02 A3029 RMK A01 T00450024  RH  086%=      5-min Rain = 0
KJU1 090148Z 32004KT 05/02 A3029 RMK A01 T00450024  RH  086%=      5-min Rain = 0
KJU1 090149Z 31003KT 05/02 A3029 RMK A01 T00450024  RH  086%=      5-min Rain = 0
KJU1 090150Z 34003KT 05/02 A3029 RMK A01 T00450024  RH  086%=      5-min Rain = 0
KJU1 090151Z 34004KT 05/02 A3029 RMK A01 T00450024  RH  086%=      5-min Rain = 0
KJU1 090152Z 34005KT 05/02 A3029 RMK A01 T00450024  RH  086%=      5-min Rain = 0
KJU1 090153Z 35004KT 05/02 A3029 RMK A01 T00450023  RH  086%=      5-min Rain = 0
KJU1 090154Z 34005KT 05/02 A3029 RMK A01 T00450023  RH  086%=      5-min Rain = 0
KJU1 090155Z 35007KT 05/02 A3029 RMK A01 T00450023  RH  086%=      5-min Rain = 0
KJU1 090156Z 36006KT 05/02 A3029 RMK A01 T00450023  RH  086%=      5-min Rain = 0
KJU1 090157Z 35005KT 05/02 A3029 RMK A01 T00450023  RH  086%=      5-min Rain = 0
KJU1 090158Z 33004KT 05/02 A3029 RMK A01 T00450024  RH  086%=      5-min Rain = 0
KJU1 090159Z 34004KT 05/02 A3029 RMK A01 T00450024  RH  086%=      5-min Rain = 0
KJU1 090200Z 35003KT 05/02 A3029 RMK A01 T00450024  RH  086%=      5-min Rain = 0
KJU1 090201Z 35004KT 05/02 A3029 RMK A01 T00450024  RH  086%=      5-min Rain = 0
KJU1 090202Z 34007KT 05/02 A3029 RMK A01 T00450024  RH  086%=      5-min Rain = 0
KJU1 090203Z 35005KT 05/02 A3029 RMK A01 T00450024  RH  086%=      5-min Rain = 0
KJU1 090204Z 33006KT 05/02 A3029 RMK A01 T00450024  RH  086%=      5-min Rain = 0
KJU1 090205Z 33005KT 05/02 A3029 RMK A01 T00450023  RH  086%=      5-min Rain = 0
KJU1 090206Z 33006KT 05/02 A3029 RMK A01 T00450023  RH  086%=      5-min Rain = 0
KJU1 090207Z 34005KT 05/02 A3029 RMK A01 T00450023  RH  086%=      5-min Rain = 0
KJU1 090208Z 35005KT 05/02 A3029 RMK A01 T00450023  RH  086%=      5-min Rain = 0
KJU1 090209Z 33005KT 05/02 A3029 RMK A01 T00450024  RH  086%=      5-min Rain = 0
KJU1 090210Z 35005KT 05/02 A3029 RMK A01 T00450024  RH  086%=      5-min Rain = 0
KJU1 090211Z 35006KT 05/02 A3029 RMK A01 T00450024  RH  086%=      5-min Rain = 0
KJU1 090212Z 36004KT 05/02 A3029 RMK A01 T00450023  RH  085%=      5-min Rain = 0
KJU1 090213Z 35004KT 05/02 A3029 RMK A01 T00450023  RH  086%=      5-min Rain = 0
KJU1 090214Z 36006KT 05/02 A3029 RMK A01 T00450023  RH  085%=      5-min Rain = 0
KJU1 090215Z 35005KT 05/02 A3029 RMK A01 T00450023  RH  085%=      5-min Rain = 0
KJU1 090216Z 34005KT 05/02 A3029 RMK A01 T00450022  RH  085%=      5-min Rain = 0
KJU1 090217Z 35004KT 05/02 A3029 RMK A01 T00450023  RH  085%=      5-min Rain = 0
KJU1 090218Z 36007KT 05/02 A3029 RMK A01 T00450023  RH  085%=      5-min Rain = 0
KJU1 090219Z 34006KT 05/02 A3029 RMK A01 T00450022  RH  085%=      5-min Rain = 0
KJU1 090220Z 34005KT 05/02 A3029 RMK A01 T00450022  RH  085%=      5-min Rain = 0
KJU1 090221Z 34006KT 05/02 A3029 RMK A01 T00450022  RH  085%=      5-min Rain = 0
KJU1 090222Z 36004KT 05/02 A3029 RMK A01 T00450021  RH  085%=      5-min Rain = 0
KJU1 090223Z 34004KT 05/02 A3029 RMK A01 T00450022  RH  085%=      5-min Rain = 0
KJU1 090224Z 35006KT 05/02 A3029 RMK A01 T00450021  RH  085%=      5-min Rain = 0
KJU1 090225Z 34004KT 05/02 A3029 RMK A01 T00450021  RH  084%=      5-min Rain = 0
KJU1 090226Z 35003KT 05/02 A3029 RMK A01 T00450021  RH  085%=      5-min Rain = 0
KJU1 090227Z 32003KT 05/02 A3029 RMK A01 T00450022  RH  085%=      5-min Rain = 0
KJU1 090228Z 34002KT 05/02 A3029 RMK A01 T00450022  RH  085%=      5-min Rain = 0
KJU1 090229Z 35003KT 05/02 A3029 RMK A01 T00450022  RH  085%=      5-min Rain = 0
KJU1 090230Z 33005KT 05/02 A3029 RMK A01 T00450022  RH  085%=      5-min Rain = 0
KJU1 090231Z 33006KT 05/02 A303 RMK A01 T00450021  RH  085%=      5-min Rain = 0
KJU1 090232Z 32006KT 05/02 A303 RMK A01 T00450021  RH  085%=      5-min Rain = 0
KJU1 090233Z 31005KT 05/02 A303 RMK A01 T00450021  RH  084%=      5-min Rain = 0
KJU1 090234Z 32004KT 05/02 A303 RMK A01 T00450021  RH  084%=      5-min Rain = 0
KJU1 090235Z 30005KT 05/02 A303 RMK A01 T00450021  RH  085%=      5-min Rain = 0
KJU1 090236Z 32006KT 05/02 A303 RMK A01 T00450021  RH  085%=      5-min Rain = 0
KJU1 090237Z 33007KT 05/02 A303 RMK A01 T00450021  RH  085%=      5-min Rain = 0
KJU1 090238Z 33005KT 05/02 A303 RMK A01 T00450021  RH  084%=      5-min Rain = 0
KJU1 090239Z 30003KT 05/02 A303 RMK A01 T00450021  RH  084%=      5-min Rain = 0
KJU1 090240Z 31005KT 05/02 A3029 RMK A01 T00450021  RH  085%=      5-min Rain = 0
KJU1 090241Z 33004KT 04/02 A3029 RMK A01 T00440021  RH  085%=      5-min Rain = 0
KJU1 090242Z 33003KT 04/02 A3029 RMK A01 T00440021  RH  085%=      5-min Rain = 0
KJU1 090243Z 33003G8KT 04/02 A3029 RMK A01 T00440021  RH  085%=      5-min Rain = 0
KJU1 090244Z 32007KT 04/02 A3029 RMK A01 T00440020  RH  085%=      5-min Rain = 0
KJU1 090245Z 33004KT 04/02 A3029 RMK A01 T00440019  RH  084%=      5-min Rain = 0
KJU1 090246Z 34004KT 04/02 A3029 RMK A01 T00430019  RH  084%=      5-min Rain = 0
KJU1 090247Z 32005KT 04/02 A3029 RMK A01 T00430018  RH  084%=      5-min Rain = 0
KJU1 090248Z 32005KT 04/02 A3029 RMK A01 T00430018  RH  084%=      5-min Rain = 0
KJU1 090249Z 34006KT 04/02 A3029 RMK A01 T00430018  RH  084%=      5-min Rain = 0
KJU1 090250Z 32006KT 04/02 A3029 RMK A01 T00420018  RH  084%=      5-min Rain = 0
KJU1 090251Z 32003KT 04/02 A3029 RMK A01 T00420018  RH  084%=      5-min Rain = 0
KJU1 090252Z 32005KT 04/02 A303 RMK A01 T00420018  RH  084%=      5-min Rain = 0
KJU1 090253Z 33005KT 04/02 A303 RMK A01 T00420018  RH  085%=      5-min Rain = 0
KJU1 090254Z 32006KT 04/02 A303 RMK A01 T00420018  RH  085%=      5-min Rain = 0
KJU1 090255Z 32005KT 04/02 A303 RMK A01 T00420018  RH  085%=      5-min Rain = 0
KJU1 090256Z 32005KT 04/02 A303 RMK A01 T00420019  RH  085%=      5-min Rain = 0
KJU1 090257Z 33004KT 04/02 A303 RMK A01 T00420019  RH  085%=      5-min Rain = 0
KJU1 090258Z 33003KT 04/02 A303 RMK A01 T00420019  RH  085%=      5-min Rain = 0
KJU1 090259Z 32002KT 04/02 A303 RMK A01 T00410019  RH  085%=      5-min Rain = 0
KJU1 090300Z 30003KT 04/02 A303 RMK A01 T00410019  RH  085%=      5-min Rain = 0
KJU1 090301Z 32004KT 04/02 A303 RMK A01 T00410019  RH  086%=      5-min Rain = 0
KJU1 090302Z 31004KT 04/02 A303 RMK A01 T00400019  RH  086%=      5-min Rain = 0
KJU1 090303Z 33003KT 04/02 A303 RMK A01 T00400019  RH  086%=      5-min Rain = 0
KJU1 090304Z 32002KT 04/02 A303 RMK A01 T00400019  RH  086%=      5-min Rain = 0
KJU1 090305Z 32003KT 04/02 A303 RMK A01 T00400020  RH  087%=      5-min Rain = 0
KJU1 090306Z 32003KT 04/02 A303 RMK A01 T00400020  RH  087%=      5-min Rain = 0
KJU1 090307Z 33002KT 04/02 A303 RMK A01 T00400020  RH  087%=      5-min Rain = 0
KJU1 090308Z 32002KT 04/02 A303 RMK A01 T00400020  RH  087%=      5-min Rain = 0
KJU1 090309Z 34003KT 04/02 A303 RMK A01 T00390020  RH  087%=      5-min Rain = 0
KJU1 090310Z 33004KT 04/02 A303 RMK A01 T00390020  RH  087%=      5-min Rain = 0
KJU1 090311Z 33003KT 04/02 A303 RMK A01 T00390020  RH  087%=      5-min Rain = 0
KJU1 090312Z 31003KT 04/02 A303 RMK A01 T00390020  RH  087%=      5-min Rain = 0
KJU1 090313Z 32004KT 04/02 A3031 RMK A01 T00390020  RH  087%=      5-min Rain = 0
KJU1 090314Z 32005KT 04/02 A3031 RMK A01 T00390019  RH  087%=      5-min Rain = 0
KJU1 090315Z 32004KT 04/02 A3031 RMK A01 T00390019  RH  087%=      5-min Rain = 0
KJU1 090316Z 33004KT 04/02 A3031 RMK A01 T00390019  RH  087%=      5-min Rain = 0
KJU1 090317Z 33005KT 04/02 A3031 RMK A01 T00390019  RH  087%=      5-min Rain = 0
KJU1 090318Z 33005KT 04/02 A303 RMK A01 T00390018  RH  087%=      5-min Rain = 0
KJU1 090319Z 33004KT 04/02 A303 RMK A01 T00390018  RH  086%=      5-min Rain = 0
KJU1 090320Z 35003KT 04/02 A3031 RMK A01 T00390018  RH  086%=      5-min Rain = 0
KJU1 090321Z 34003KT 04/02 A3031 RMK A01 T00380018  RH  086%=      5-min Rain = 0
KJU1 090322Z 34005KT 04/02 A3031 RMK A01 T00380018  RH  087%=      5-min Rain = 0
KJU1 090323Z 34004KT 04/02 A3031 RMK A01 T00380018  RH  087%=      5-min Rain = 0
KJU1 090324Z 34004KT 04/02 A3031 RMK A01 T00380018  RH  087%=      5-min Rain = 0
KJU1 090325Z 34003KT 04/02 A3031 RMK A01 T00390018  RH  087%=      5-min Rain = 0
KJU1 090326Z 35004KT 04/02 A3031 RMK A01 T00380018  RH  087%=      5-min Rain = 0
KJU1 090327Z 34003KT 04/02 A3031 RMK A01 T00390018  RH  087%=      5-min Rain = 0
KJU1 090328Z 35003KT 04/02 A3031 RMK A01 T00380018  RH  087%=      5-min Rain = 0
KJU1 090329Z 35004KT 04/02 A3031 RMK A01 T00380018  RH  087%=      5-min Rain = 0
KJU1 090330Z 35005KT 04/02 A3031 RMK A01 T00390019  RH  087%=      5-min Rain = 0
KJU1 090331Z 35004KT 04/02 A3031 RMK A01 T00390019  RH  087%=      5-min Rain = 0
KJU1 090332Z 33005KT 04/02 A3031 RMK A01 T00390019  RH  087%=      5-min Rain = 0
KJU1 090333Z 34003KT 04/02 A3031 RMK A01 T00390019  RH  086%=      5-min Rain = 0
KJU1 090334Z 35004KT 04/02 A3031 RMK A01 T00390019  RH  086%=      5-min Rain = 0
KJU1 090335Z 34003KT 04/02 A3031 RMK A01 T00400019  RH  086%=      5-min Rain = 0
KJU1 090336Z 34006KT 04/02 A3031 RMK A01 T00400019  RH  086%=      5-min Rain = 0
KJU1 090337Z 34005KT 04/02 A3031 RMK A01 T00400019  RH  086%=      5-min Rain = 0
KJU1 090338Z 34004KT 04/02 A3031 RMK A01 T00400018  RH  086%=      5-min Rain = 0
KJU1 090339Z 34003KT 04/02 A3031 RMK A01 T00400018  RH  086%=      5-min Rain = 0
KJU1 090340Z 32003KT 04/02 A3031 RMK A01 T00410018  RH  085%=      5-min Rain = 0
KJU1 090341Z 31005KT 04/02 A3031 RMK A01 T00410019  RH  086%=      5-min Rain = 0
KJU1 090342Z 34005KT 04/02 A3031 RMK A01 T00410019  RH  086%=      5-min Rain = 0
KJU1 090343Z 36006KT 04/02 A3031 RMK A01 T00410018  RH  085%=      5-min Rain = 0
KJU1 090344Z 34004KT 04/02 A3031 RMK A01 T00410018  RH  085%=      5-min Rain = 0
KJU1 090345Z 35004KT 04/02 A3031 RMK A01 T00410019  RH  085%=      5-min Rain = 0
KJU1 090346Z 34005KT 04/02 A3031 RMK A01 T00410019  RH  085%=      5-min Rain = 0
KJU1 090347Z 32004KT 04/02 A3031 RMK A01 T00410019  RH  085%=      5-min Rain = 0
KJU1 090348Z 33005KT 04/02 A3031 RMK A01 T00410018  RH  085%=      5-min Rain = 0
KJU1 090349Z 34005KT 04/02 A3031 RMK A01 T00410018  RH  085%=      5-min Rain = 0
KJU1 090350Z 33005KT 04/02 A3031 RMK A01 T00410019  RH  085%=      5-min Rain = 0
KJU1 090351Z 32005KT 04/02 A3031 RMK A01 T00410019  RH  085%=      5-min Rain = 0
KJU1 090352Z 33005KT 04/02 A3031 RMK A01 T00410018  RH  085%=      5-min Rain = 0
KJU1 090353Z 33005KT 04/02 A3032 RMK A01 T00410018  RH  085%=      5-min Rain = 0
KJU1 090354Z 32005KT 04/02 A3032 RMK A01 T00410018  RH  085%=      5-min Rain = 0
KJU1 090355Z 33005KT 04/02 A3032 RMK A01 T00410018  RH  085%=      5-min Rain = 0
KJU1 090356Z 33003KT 04/02 A3032 RMK A01 T00420018  RH  085%=      5-min Rain = 0
KJU1 090357Z 34005KT 04/02 A3032 RMK A01 T00420018  RH  085%=      5-min Rain = 0
KJU1 090358Z 34004KT 04/02 A3032 RMK A01 T00420018  RH  085%=      5-min Rain = 0
KJU1 090359Z 32003KT 04/02 A3032 RMK A01 T00420019  RH  085%=      5-min Rain = 0
KJU1 090400Z 33003KT 04/02 A3032 RMK A01 T00420019  RH  085%=      5-min Rain = 0
KJU1 090401Z 32002KT 04/02 A3032 RMK A01 T00420019  RH  085%=      5-min Rain = 0
KJU1 090402Z 30002KT 04/02 A3032 RMK A01 T00420020  RH  086%=      5-min Rain = 0
KJU1 090403Z 31002KT 04/02 A3032 RMK A01 T00420020  RH  086%=      5-min Rain = 0
KJU1 090404Z 32002KT 04/02 A3032 RMK A01 T00420021  RH  086%=      5-min Rain = 0
KJU1 090405Z 34002KT 04/02 A3032 RMK A01 T00420021  RH  086%=      5-min Rain = 0
KJU1 090406Z 34002KT 04/02 A3032 RMK A01 T00420021  RH  086%=      5-min Rain = 0
KJU1 090407Z 34002KT 04/02 A3032 RMK A01 T00420021  RH  086%=      5-min Rain = 0
KJU1 090408Z 35003KT 04/02 A3032 RMK A01 T00420021  RH  087%=      5-min Rain = 0
KJU1 090409Z 33004KT 04/02 A3032 RMK A01 T00420021  RH  086%=      5-min Rain = 0
KJU1 090410Z 32007KT 04/02 A3032 RMK A01 T00420020  RH  086%=      5-min Rain = 0
KJU1 090411Z 34004KT 04/02 A3032 RMK A01 T00420019  RH  085%=      5-min Rain = 0
KJU1 090412Z 34007KT 04/02 A3032 RMK A01 T00420019  RH  085%=      5-min Rain = 0
KJU1 090413Z 33006KT 04/02 A3032 RMK A01 T00420018  RH  085%=      5-min Rain = 0
KJU1 090414Z 34006KT 04/02 A3032 RMK A01 T00420018  RH  085%=      5-min Rain = 0
KJU1 090415Z 34006KT 04/02 A3032 RMK A01 T00420018  RH  084%=      5-min Rain = 0
KJU1 090416Z 32006KT 04/02 A3032 RMK A01 T00420017  RH  084%=      5-min Rain = 0
KJU1 090417Z 35004KT 04/02 A3032 RMK A01 T00420016  RH  084%=      5-min Rain = 0
KJU1 090418Z 34005KT 04/02 A3032 RMK A01 T00420017  RH  084%=      5-min Rain = 0
KJU1 090419Z 33004KT 04/02 A3032 RMK A01 T00420018  RH  084%=      5-min Rain = 0
KJU1 090420Z 34004KT 04/02 A3032 RMK A01 T00420018  RH  084%=      5-min Rain = 0
KJU1 090421Z 33004KT 04/02 A3032 RMK A01 T00420018  RH  084%=      5-min Rain = 0
KJU1 090422Z 33007KT 04/02 A3032 RMK A01 T00420018  RH  084%=      5-min Rain = 0
KJU1 090423Z 33007KT 04/02 A3032 RMK A01 T00420017  RH  084%=      5-min Rain = 0
KJU1 090424Z 32006KT 04/02 A3032 RMK A01 T00420017  RH  084%=      5-min Rain = 0
KJU1 090425Z 32008KT 04/02 A3032 RMK A01 T00420017  RH  083%=      5-min Rain = 0
KJU1 090426Z 32008KT 04/02 A3032 RMK A01 T00420016  RH  083%=      5-min Rain = 0
KJU1 090427Z 33006KT 04/02 A3032 RMK A01 T00420016  RH  083%=      5-min Rain = 0
KJU1 090428Z 33006KT 04/02 A3032 RMK A01 T00420016  RH  083%=      5-min Rain = 0
KJU1 090429Z 33006KT 04/02 A3032 RMK A01 T00420016  RH  083%=      5-min Rain = 0
KJU1 090430Z 32007KT 04/02 A3032 RMK A01 T00420017  RH  083%=      5-min Rain = 0
KJU1 090431Z 33006KT 04/02 A3032 RMK A01 T00420017  RH  084%=      5-min Rain = 0
KJU1 090432Z 32005KT 04/02 A3032 RMK A01 T00420017  RH  084%=      5-min Rain = 0
KJU1 090433Z 32005KT 04/02 A3032 RMK A01 T00420017  RH  084%=      5-min Rain = 0
KJU1 090434Z 32005KT 04/02 A3032 RMK A01 T00420017  RH  084%=      5-min Rain = 0
KJU1 090435Z 32005KT 04/02 A3032 RMK A01 T00420017  RH  084%=      5-min Rain = 0
KJU1 090436Z 34005KT 04/02 A3032 RMK A01 T00420017  RH  084%=      5-min Rain = 0
KJU1 090437Z 32006KT 04/02 A3032 RMK A01 T00420017  RH  084%=      5-min Rain = 0
KJU1 090438Z 33004KT 04/02 A3032 RMK A01 T00420017  RH  084%=      5-min Rain = 0
KJU1 090439Z 33005KT 04/02 A3032 RMK A01 T00420017  RH  084%=      5-min Rain = 0
KJU1 090440Z 33005KT 04/02 A3032 RMK A01 T00420017  RH  084%=      5-min Rain = 0
KJU1 090441Z 33004KT 04/02 A3032 RMK A01 T00420017  RH  084%=      5-min Rain = 0
KJU1 090442Z 34006KT 04/02 A3032 RMK A01 T00420016  RH  083%=      5-min Rain = 0
KJU1 090443Z 32005KT 04/02 A3032 RMK A01 T00420016  RH  084%=      5-min Rain = 0
KJU1 090444Z 32005KT 04/02 A3032 RMK A01 T00420017  RH  084%=      5-min Rain = 0
KJU1 090445Z 32004KT 04/02 A3032 RMK A01 T00420017  RH  084%=      5-min Rain = 0
KJU1 090446Z 33005KT 04/02 A3032 RMK A01 T00420017  RH  084%=      5-min Rain = 0
KJU1 090447Z 32005KT 04/02 A3032 RMK A01 T00420017  RH  084%=      5-min Rain = 0
KJU1 090448Z 32004KT 04/02 A3032 RMK A01 T00410016  RH  084%=      5-min Rain = 0
KJU1 090449Z 32004KT 04/02 A3032 RMK A01 T00410016  RH  084%=      5-min Rain = 0
KJU1 090450Z 33006KT 04/02 A3033 RMK A01 T00410016  RH  084%=      5-min Rain = 0
KJU1 090451Z 32004KT 04/02 A3033 RMK A01 T00410016  RH  084%=      5-min Rain = 0
KJU1 090452Z 33004KT 04/02 A3033 RMK A01 T00410016  RH  084%=      5-min Rain = 0
KJU1 090453Z 33004KT 04/02 A3033 RMK A01 T00410016  RH  084%=      5-min Rain = 0
KJU1 090454Z 32004KT 04/02 A3033 RMK A01 T00410016  RH  084%=      5-min Rain = 0
KJU1 090455Z 33003KT 04/02 A3033 RMK A01 T00410016  RH  084%=      5-min Rain = 0
KJU1 090456Z 32004KT 04/02 A3033 RMK A01 T00410016  RH  084%=      5-min Rain = 0
KJU1 090457Z 32002KT 04/02 A3033 RMK A01 T00410016  RH  084%=      5-min Rain = 0
KJU1 090458Z 34004KT 04/02 A3033 RMK A01 T00410017  RH  084%=      5-min Rain = 0
KJU1 090459Z 33004KT 04/02 A3033 RMK A01 T00410016  RH  084%=      5-min Rain = 0
KJU1 090500Z 33004KT 04/02 A3033 RMK A01 T00410016  RH  084%=      5-min Rain = 0
KJU1 090501Z 31003KT 04/02 A3033 RMK A01 T00410016  RH  084%=      5-min Rain = 0
KJU1 090502Z 34003KT 04/02 A3033 RMK A01 T00410017  RH  084%=      5-min Rain = 0
KJU1 090503Z 33005KT 04/02 A3033 RMK A01 T00410017  RH  084%=      5-min Rain = 0
KJU1 090504Z 33004KT 04/02 A3033 RMK A01 T00410016  RH  084%=      5-min Rain = 0
KJU1 090505Z 33004KT 04/02 A3033 RMK A01 T00410017  RH  084%=      5-min Rain = 0
KJU1 090506Z 33004KT 04/02 A3032 RMK A01 T00410016  RH  084%=      5-min Rain = 0
KJU1 090507Z 33005KT 04/02 A3032 RMK A01 T00410016  RH  084%=      5-min Rain = 0
KJU1 090508Z 34003KT 04/02 A3032 RMK A01 T00410016  RH  084%=      5-min Rain = 0
KJU1 090509Z 34004KT 04/02 A3032 RMK A01 T00410016  RH  084%=      5-min Rain = 0
KJU1 090510Z 34004KT 04/02 A3032 RMK A01 T00410016  RH  084%=      5-min Rain = 0
KJU1 090511Z 33003KT 04/02 A3032 RMK A01 T00410016  RH  084%=      5-min Rain = 0
KJU1 090512Z 34004KT 04/02 A3032 RMK A01 T00410016  RH  084%=      5-min Rain = 0
KJU1 090513Z 34004KT 04/02 A3032 RMK A01 T00410016  RH  084%=      5-min Rain = 0
KJU1 090514Z 33005KT 04/02 A3032 RMK A01 T00410016  RH  084%=      5-min Rain = 0
KJU1 090515Z 31003KT 04/02 A3032 RMK A01 T00410016  RH  084%=      5-min Rain = 0
KJU1 090516Z 34006KT 04/02 A3032 RMK A01 T00410016  RH  084%=      5-min Rain = 0
KJU1 090517Z 33006KT 04/02 A3032 RMK A01 T00410016  RH  084%=      5-min Rain = 0
KJU1 090518Z 34006KT 04/02 A3032 RMK A01 T00410015  RH  083%=      5-min Rain = 0
KJU1 090519Z 34006KT 04/02 A3032 RMK A01 T00410015  RH  083%=      5-min Rain = 0
KJU1 090520Z 33006KT 04/02 A3032 RMK A01 T00410015  RH  083%=      5-min Rain = 0
KJU1 090521Z 33005KT 04/02 A3032 RMK A01 T00410015  RH  083%=      5-min Rain = 0
KJU1 090522Z 32005KT 04/02 A3032 RMK A01 T00410015  RH  083%=      5-min Rain = 0
KJU1 090523Z 33006KT 04/02 A3032 RMK A01 T00410015  RH  083%=      5-min Rain = 0
KJU1 090524Z 32005KT 04/02 A3032 RMK A01 T00410015  RH  083%=      5-min Rain = 0
KJU1 090525Z 33005KT 04/02 A3032 RMK A01 T00410015  RH  083%=      5-min Rain = 0
KJU1 090526Z 32005KT 04/02 A3032 RMK A01 T00410015  RH  084%=      5-min Rain = 0
KJU1 090527Z 31004KT 04/02 A3032 RMK A01 T00410016  RH  084%=      5-min Rain = 0
KJU1 090528Z 32006KT 04/02 A3033 RMK A01 T00410016  RH  084%=      5-min Rain = 0
KJU1 090529Z 32006KT 04/02 A3033 RMK A01 T00400015  RH  083%=      5-min Rain = 0
KJU1 090530Z 33005KT 04/01 A3033 RMK A01 T00400014  RH  083%=      5-min Rain = 0
KJU1 090531Z 33005G10KT 04/01 A3033 RMK A01 T00400014  RH  083%=      5-min Rain = 0
KJU1 090532Z 33006KT 04/01 A3033 RMK A01 T00400014  RH  083%=      5-min Rain = 0
KJU1 090533Z 32004KT 04/01 A3033 RMK A01 T00400014  RH  083%=      5-min Rain = 0
KJU1 090534Z 33007KT 04/01 A3033 RMK A01 T00400014  RH  083%=      5-min Rain = 0
KJU1 090535Z 32006KT 04/01 A3033 RMK A01 T00400014  RH  083%=      5-min Rain = 0
KJU1 090536Z 34004KT 04/01 A3033 RMK A01 T00400014  RH  083%=      5-min Rain = 0
KJU1 090537Z 32005KT 04/01 A3033 RMK A01 T00400013  RH  083%=      5-min Rain = 0
KJU1 090538Z 32005KT 04/01 A3033 RMK A01 T00400013  RH  082%=      5-min Rain = 0
KJU1 090539Z 31007KT 04/01 A3033 RMK A01 T00400013  RH  082%=      5-min Rain = 0
KJU1 090540Z 31007KT 04/01 A3033 RMK A01 T00400013  RH  082%=      5-min Rain = 0
KJU1 090541Z 34006KT 04/01 A3033 RMK A01 T00400013  RH  082%=      5-min Rain = 0
KJU1 090542Z 33005KT 04/01 A3033 RMK A01 T00400013  RH  082%=      5-min Rain = 0
KJU1 090543Z 32005KT 04/01 A3033 RMK A01 T00400013  RH  082%=      5-min Rain = 0
KJU1 090544Z 32004KT 04/01 A3033 RMK A01 T00400013  RH  082%=      5-min Rain = 0
KJU1 090545Z 32006KT 04/01 A3033 RMK A01 T00400013  RH  082%=      5-min Rain = 0
KJU1 090546Z 32006KT 04/01 A3033 RMK A01 T00400013  RH  082%=      5-min Rain = 0
KJU1 090547Z 33004KT 04/01 A3033 RMK A01 T00400013  RH  082%=      5-min Rain = 0
KJU1 090548Z 31004KT 04/01 A3033 RMK A01 T00400013  RH  083%=      5-min Rain = 0
KJU1 090549Z 33005KT 04/01 A3033 RMK A01 T00400014  RH  083%=      5-min Rain = 0
KJU1 090550Z 32006KT 04/01 A3033 RMK A01 T00400014  RH  083%=      5-min Rain = 0
KJU1 090551Z 32004KT 04/01 A3033 RMK A01 T00400014  RH  083%=      5-min Rain = 0
KJU1 090552Z 33004KT 04/01 A3033 RMK A01 T00400014  RH  083%=      5-min Rain = 0
KJU1 090553Z 32006KT 04/01 A3033 RMK A01 T00400014  RH  083%=      5-min Rain = 0
KJU1 090554Z 32005KT 04/01 A3033 RMK A01 T00400014  RH  083%=      5-min Rain = 0
KJU1 090555Z 32006KT 04/01 A3033 RMK A01 T00400014  RH  083%=      5-min Rain = 0
KJU1 090556Z 31008KT 04/01 A3033 RMK A01 T00400013  RH  083%=      5-min Rain = 0
KJU1 090557Z 31008KT 04/01 A3033 RMK A01 T00400013  RH  082%=      5-min Rain = 0
KJU1 090558Z 31005KT 04/01 A3033 RMK A01 T00400013  RH  083%=      5-min Rain = 0
KJU1 090559Z 31006KT 04/01 A3033 RMK A01 T00400013  RH  083%=      5-min Rain = 0

Page generated in 0.1214 seconds.